GFSSGP_250_rhum_000.txt.gz
RH
99 97 95 100 95 82 79 77 67 56 49 41 48 56 55 39 38 43 36 36 48 49 48 64 75 80 95 84 82 86 96 93 92 77 37 21 14 10 9 20 18 20 18 19 16 18 16 15 17
78 91 100 100 98 84 82 76 65 51 45 38 41 32 47 46 36 31 44 42 50 70 98 100 100 100 100 100 100 98 100 72 40 10 12 19 14 15 18 21 24 21 24 30 31 29 36 44 36
75 80 87 93 84 82 77 72 70 60 56 49 39 33 40 50 42 68 62 58 56 81 89 100 100 100 98 95 90 50 25 8 7 8 10 16 18 20 21 23 24 25 27 29 33 32 32 28 28
53 79 86 93 85 78 66 66 63 53 55 57 38 44 48 57 59 51 57 60 69 76 98 100 100 74 64 31 18 7 7 9 15 16 16 17 18 19 20 20 23 25 26 30 34 35 38 41 35
53 64 65 84 87 59 92 96 78 59 50 42 49 59 51 51 58 62 96 100 100 100 97 98 65 46 22 16 6 10 15 15 17 18 19 20 22 23 21 21 21 22 24 30 39 46 46 40 41
81 70 52 57 75 74 98 88 64 76 58 64 66 76 68 56 100 100 100 100 99 92 84 55 26 9 8 11 15 17 19 19 22 23 25 26 27 28 28 32 34 36 35 33 36 49 50 50 37
80 88 71 55 49 99 99 92 67 78 77 68 66 68 76 100 100 94 98 92 87 69 27 12 3 11 16 19 19 21 24 24 22 26 27 29 33 31 29 32 37 42 44 42 41 37 46 51 50
100 72 97 100 90 100 77 83 80 86 74 100 100 100 100 100 96 93 82 66 43 28 9 7 12 18 20 20 20 20 22 30 31 31 33 34 39 38 41 40 36 33 35 38 48 41 41 41 40
100 100 98 100 100 100 98 94 100 74 89 99 100 96 100 100 90 64 40 34 15 8 12 14 17 18 20 21 23 25 27 30 35 35 36 38 38 37 38 42 43 38 33 32 30 38 45 47 44
100 100 100 98 100 100 95 96 90 98 100 100 100 91 81 63 36 19 15 10 14 17 17 18 19 20 24 28 32 35 34 35 39 40 42 42 45 50 49 47 45 48 45 40 32 27 32 44 43
100 100 99 100 94 89 53 98 99 100 100 97 64 58 28 17 15 10 11 13 17 18 19 23 29 44 42 43 54 57 55 51 43 42 41 41 42 43 44 46 45 41 40 44 44 39 31 29 38
99 99 97 98 88 85 89 100 94 89 88 76 53 18 18 11 12 12 15 20 24 22 25 31 47 48 46 44 42 41 44 43 39 35 32 32 34 37 39 41 44 48 47 37 32 34 34 31 34
98 98 97 70 90 94 93 99 87 79 41 45 19 14 11 13 15 15 18 22 29 30 27 33 39 37 33 34 38 36 33 33 30 28 28 30 33 38 43 44 42 50 53 49 39 36 35 37 34
65 68 85 88 81 86 79 63 46 32 17 11 10 14 14 14 18 19 24 27 26 30 35 31 38 40 33 33 30 29 30 29 31 35 46 61 60 58 58 52 38 36 38 41 46 48 47 43 39
41 50 70 70 63 51 39 32 22 11 12 12 14 17 17 19 22 27 29 28 24 30 37 36 37 32 27 27 25 26 30 31 31 38 62 66 76 60 49 46 41 41 40 40 38 37 36 37 39
28 28 23 28 26 19 19 17 14 15 14 17 18 22 21 20 27 33 30 29 23 23 24 23 23 25 25 23 23 24 25 32 39 56 72 83 72 68 72 80 77 69 69 67 67 67 60 52 46
14 14 12 12 11 11 11 15 16 23 22 21 24 26 30 31 29 30 27 20 19 17 16 16 18 20 19 21 23 26 32 40 75 78 77 65 60 67 75 74 69 65 64 65 62 64 66 68 65
12 12 11 11 12 13 18 20 24 24 27 30 35 31 25 18 18 17 17 17 16 17 18 23 26 25 27 32 38 43 54 61 71 70 73 79 73 65 56 54 51 55 58 60 62 60 58 57 80
13 12 13 14 16 22 28 29 36 32 34 32 32 32 23 20 24 28 25 27 26 23 24 25 26 26 28 34 44 54 56 57 60 60 61 66 63 58 53 58 72 65 60 58 65 67 67 65 64
14 15 17 20 25 31 39 38 35 32 30 24 22 23 24 27 32 32 31 31 29 30 26 23 25 34 44 52 58 68 75 75 71 69 68 63 61 58 55 54 56 71 74 73 77 72 71 68 67
16 18 20 20 24 26 24 21 20 20 20 19 22 27 31 33 35 28 26 27 26 22 24 40 51 54 56 64 71 71 68 66 62 58 51 48 53 59 57 57 53 56 62 64 74 77 77 77 76
16 16 16 17 17 16 17 19 20 20 19 22 26 31 30 25 21 21 20 19 28 40 48 56 59 70 76 75 69 60 53 57 60 55 55 55 50 47 49 51 56 67 73 74 76 77 80 81 81
18 17 19 20 20 18 18 18 21 21 19 24 31 26 25 24 23 26 35 50 58 62 65 74 89 92 73 55 52 49 48 46 48 47 49 50 45 43 46 54 64 64 70 72 76 84 90 81 72
22 20 19 19 20 20 20 21 27 20 20 24 23 26 26 24 31 48 62 76 72 75 86 100 93 76 59 52 51 45 43 48 43 45 47 46 51 58 70 74 80 77 73 78 82 77 73 71 63
24 20 17 17 18 20 19 22 20 22 23 25 28 25 24 38 60 69 75 78 76 79 78 67 64 59 55 50 46 45 46 50 52 56 53 63 77 90 82 84 87 81 74 77 73 66 64 61 56
32 34 18 17 17 17 18 21 22 20 19 18 21 25 39 60 67 66 59 55 51 51 56 58 48 46 49 51 57 67 63 66 80 84 77 86 89 99 96 92 72 71 65 60 50 39 32 25 26
28 33 25 18 17 17 18 17 17 16 18 21 27 43 58 68 78 73 57 45 44 46 45 55 62 62 63 75 84 86 90 90 78 80 100 100 100 99 90 73 63 56 46 31 22 16 16 15 14
25 27 25 20 15 14 15 15 16 19 26 39 53 58 61 59 49 39 41 48 48 48 48 47 50 65 85 88 86 90 96 96 99 100 100 97 90 81 63 60 55 35 19 14 13 12 12 10 10
19 19 18 17 17 17 18 24 30 44 50 54 60 58 46 38 44 51 55 49 54 62 61 65 80 83 90 98 100 100 100 100 100 97 94 93 82 61 57 41 18 14 14 12 10 8 6 6 6
31 31 32 34 39 38 39 46 59 47 62 61 51 43 40 46 53 53 49 53 56 58 74 95 94 100 100 100 100 100 100 98 100 95 88 72 54 40 28 13 14 14 11 8 6 6 6 6 7

GFSSGP_250_rhum_003.txt.gz
RH
100 99 100 90 91 86 83 91 88 100 98 92 96 95 92 83 69 66 51 40 35 32 25 29 31 39 52 70 99 100 100 100 74 46 38 35 20 18 12 12 8 12 14 14 15 20 20 19 20
98 100 99 95 100 98 79 99 88 100 96 98 99 96 88 71 61 54 35 24 27 25 31 42 52 57 91 95 100 99 79 49 28 6 10 10 12 15 16 16 17 18 17 17 18 19 22 24 22
92 96 100 99 93 97 88 88 84 94 96 97 91 79 72 51 46 36 27 34 36 38 49 60 81 100 100 100 100 72 40 13 3 4 11 12 14 14 16 18 18 19 21 22 23 24 26 30 33
97 100 98 100 90 83 78 81 77 74 79 83 85 62 40 26 26 31 39 32 64 72 77 91 100 100 100 87 64 36 9 6 5 11 14 15 17 17 17 18 19 20 21 20 20 23 31 37 36
94 75 94 85 72 67 74 72 72 65 58 66 60 44 39 28 28 37 56 86 91 94 100 100 100 90 63 52 34 18 6 9 14 16 17 17 18 18 18 17 18 20 20 19 19 22 24 40 49
100 100 93 79 65 68 59 66 55 52 58 60 62 43 36 36 43 78 100 100 100 100 100 100 89 56 50 24 10 11 14 15 14 16 18 19 18 18 19 21 24 28 28 27 26 22 24 25 28
100 100 100 89 58 60 63 56 60 54 65 56 51 45 42 51 100 100 100 100 100 100 100 79 48 26 9 10 12 16 17 18 17 17 19 22 24 23 25 29 32 36 39 37 30 28 25 24 29
100 100 100 100 100 100 100 100 89 78 64 59 45 69 94 100 100 100 100 100 98 91 70 52 36 12 10 14 15 18 22 24 20 21 24 26 30 31 33 37 36 35 35 37 38 35 34 32 30
100 100 95 100 100 100 100 100 83 78 79 100 96 100 100 100 100 100 99 100 89 70 51 33 10 12 16 18 20 26 35 39 36 32 34 34 32 33 36 36 35 34 32 38 40 39 36 34 36
100 100 100 100 100 100 97 100 97 94 100 98 84 100 100 100 100 100 98 89 64 43 14 12 13 17 22 27 32 38 40 40 39 37 34 30 27 26 26 29 32 33 33 32 35 36 38 40 37
100 100 100 100 100 100 100 100 100 100 100 100 100 100 100 100 98 92 74 65 26 14 16 18 18 24 32 39 34 31 29 29 27 24 25 28 27 30 33 34 39 41 39 31 37 40 41 35 37
100 100 100 100 100 100 100 100 100 100 100 100 100 100 98 98 77 64 33 12 15 17 24 25 26 23 29 32 30 29 25 22 20 20 20 20 23 26 28 34 34 34 39 36 36 40 38 38 42
100 100 100 100 100 100 100 97 100 97 100 100 100 100 82 66 44 18 14 18 19 24 25 28 26 27 27 23 24 25 24 22 20 18 18 23 26 29 41 42 42 46 45 44 42 39 39 40 40
87 95 100 100 100 91 90 98 93 97 100 97 88 78 39 15 12 13 15 19 21 27 27 26 26 25 24 20 19 19 20 21 20 22 25 33 35 44 49 56 58 63 66 64 62 59 55 53 51
21 30 34 43 48 62 74 68 72 87 77 53 33 14 9 12 14 16 17 18 20 21 22 23 24 20 17 16 17 20 20 21 24 29 34 39 49 74 93 87 90 91 86 80 77 75 72 65 59
41 39 32 26 32 42 42 32 28 24 22 16 11 10 14 16 16 18 17 18 18 18 19 17 17 16 17 19 21 29 29 34 40 41 43 56 64 75 84 90 91 92 92 86 80 72 66 65 61
52 44 40 35 27 22 19 13 10 11 13 14 17 18 17 18 21 25 27 21 19 18 17 19 20 19 21 24 28 30 28 33 38 45 59 65 74 81 91 94 85 70 59 53 48 48 49 55 65
25 15 12 11 11 11 10 11 14 17 19 23 21 21 22 26 25 25 22 20 21 25 23 23 25 27 26 24 26 31 53 58 61 67 84 89 98 90 73 56 46 42 43 46 53 58 60 65 66
12 12 12 12 12 13 15 18 26 29 27 27 28 28 26 22 22 22 21 22 27 26 25 25 23 25 24 32 48 52 55 58 71 90 85 67 54 43 41 42 45 48 54 59 59 60 65 66 70
14 13 13 14 20 26 32 36 36 38 36 30 30 24 21 20 22 23 26 26 23 23 21 23 33 47 44 43 45 53 60 66 70 64 50 45 43 42 42 42 47 49 52 50 45 44 46 50 53
16 15 15 17 23 26 31 33 32 28 24 20 20 19 18 19 22 24 23 26 26 30 40 55 50 53 54 53 57 59 62 66 60 53 49 46 42 42 47 49 51 51 45 46 44 46 53 55 63
17 17 18 20 24 27 29 27 29 22 18 17 17 18 19 21 23 23 28 27 35 54 58 55 62 64 61 56 52 58 62 46 46 46 48 48 51 69 75 77 75 67 65 70 74 80 88 92 83
18 18 19 19 20 19 21 20 15 18 16 16 17 18 21 24 24 29 27 33 62 70 68 68 66 57 52 49 53 50 48 46 46 46 61 75 85 92 94 87 68 72 87 95 87 89 83 80 81
21 22 20 19 16 15 18 19 13 20 15 17 19 22 24 25 26 26 30 45 68 71 75 76 62 49 47 47 45 43 45 55 65 78 89 86 80 86 91 100 100 100 93 70 75 75 73 66 72
42 37 25 20 18 16 18 17 14 17 17 18 21 21 20 22 25 31 40 54 70 72 64 52 47 51 47 44 52 62 70 80 90 93 92 100 100 100 100 93 81 80 86 94 87 74 60 48 51
32 31 36 42 22 17 17 16 15 16 17 20 21 21 21 25 32 42 56 68 63 51 46 49 52 48 49 56 66 73 83 94 100 100 100 100 99 100 95 81 86 90 87 70 66 53 40 32 28
21 26 27 27 34 26 20 18 14 16 16 16 16 20 30 48 57 62 58 52 42 42 44 45 50 58 66 70 88 96 81 84 100 99 82 80 86 75 74 80 83 68 60 49 35 30 23 18 13
20 20 21 21 23 23 19 16 14 14 18 26 37 50 59 62 52 44 45 42 44 47 49 56 69 82 94 99 98 73 81 93 88 99 100 92 85 73 73 61 52 36 30 26 16 12 11 10 10
36 36 34 32 30 25 26 40 39 33 39 48 50 57 53 48 36 36 41 42 41 49 58 72 88 99 100 90 77 81 100 100 97 75 81 77 72 63 52 43 28 19 13 12 11 10 9 8 6
46 49 51 51 53 50 46 44 48 45 48 50 54 51 46 44 40 48 48 48 51 62 83 100 100 98 86 84 91 98 97 94 84 81 72 65 53 38 23 16 13 12 12 10 7 6 6 5 5

GFSSGP_250_rhum_006.txt.gz
RH
100 100 100 100 100 100 99 87 87 100 100 100 79 79 78 98 87 84 77 76 65 67 55 42 25 21 22 35 37 51 78 100 100 100 73 39 23 13 6 8 9 12 12 12 14 15 17 17 19
100 100 100 100 100 100 100 95 86 97 100 95 74 64 64 79 68 77 87 80 58 51 52 35 25 27 32 44 65 91 100 100 100 78 38 12 7 9 14 15 15 16 15 15 16 16 17 17 18
100 100 100 100 100 100 88 90 100 100 96 100 99 90 78 81 85 85 59 39 24 32 30 30 30 40 75 100 98 100 100 97 68 39 11 9 11 12 16 16 16 16 17 17 18 19 18 19 21
100 100 100 100 100 100 94 100 100 100 100 91 86 93 95 87 73 57 40 31 28 39 48 50 67 95 100 100 100 100 89 68 30 10 9 11 14 15 15 16 14 14 15 16 16 17 19 22 22
100 100 100 100 100 100 100 100 100 87 88 98 87 88 74 63 60 47 40 36 44 60 69 84 100 100 100 100 100 96 69 35 14 11 12 13 14 14 15 18 17 18 18 17 17 18 18 18 19
100 100 100 100 100 100 100 100 100 98 87 72 62 70 61 48 40 43 43 48 58 65 92 100 100 100 100 100 86 71 35 14 12 13 14 16 17 16 18 19 20 21 21 21 20 21 20 18 18
100 100 100 100 100 100 96 89 79 82 76 69 64 58 49 42 33 45 56 58 91 100 100 100 100 100 98 84 64 40 14 12 15 18 18 20 26 27 25 25 25 25 26 26 25 28 28 27 24
100 100 100 100 100 100 91 90 60 56 52 54 55 68 85 72 77 79 86 100 100 100 100 100 100 96 86 60 36 12 16 23 27 24 26 31 32 28 23 22 22 23 26 28 28 36 42 35 35
100 100 100 100 100 100 100 93 100 100 98 100 100 100 100 100 99 99 96 100 100 100 100 100 97 80 56 33 15 19 22 22 22 20 20 22 22 20 19 17 20 21 24 31 31 34 40 50 48
100 100 100 100 100 100 98 86 82 98 100 100 100 100 100 100 100 100 100 100 100 100 96 88 72 55 27 13 17 25 27 25 24 25 22 20 19 19 20 23 25 29 26 28 32 32 35 38 40
100 100 100 98 100 90 100 100 100 100 100 100 100 100 100 100 100 100 100 100 100 93 82 74 51 20 17 22 26 26 28 24 23 24 24 22 20 19 20 24 31 28 24 25 38 45 44 39 36
99 100 100 100 100 100 100 100 100 100 100 100 100 100 100 100 100 100 100 100 98 85 68 34 20 25 26 27 24 24 24 22 20 16 16 16 17 18 19 21 24 25 30 41 44 43 49 52 54
43 63 81 100 100 100 100 100 100 100 100 100 100 100 99 100 100 98 97 88 81 43 19 15 18 23 25 25 23 22 19 15 14 16 18 17 17 19 22 23 26 31 36 48 55 59 65 68 66
41 53 69 89 100 100 100 100 100 100 100 100 96 99 100 97 95 86 71 37 21 16 18 21 34 100 52 40 26 23 18 16 15 19 20 21 22 24 29 34 43 48 55 65 71 75 71 63 55
65 81 68 52 46 77 100 100 100 100 100 97 100 97 77 56 40 13 12 14 16 20 21 86 100 100 41 26 28 17 17 16 20 23 24 28 35 44 42 47 49 64 83 89 83 76 68 56 45
25 24 22 21 23 29 49 50 53 66 66 59 62 47 31 16 12 14 16 16 17 20 23 100 100 98 72 21 20 18 22 22 22 22 30 49 52 48 42 50 60 71 69 56 41 41 43 44 46
24 25 26 26 31 41 61 57 50 42 34 25 17 15 14 15 21 17 18 17 17 18 27 86 98 74 40 61 43 21 21 21 25 35 41 49 42 57 60 66 59 49 46 42 43 43 45 51 56
70 63 58 62 63 47 35 23 20 16 16 16 18 19 18 20 19 17 17 19 21 20 21 20 26 44 37 37 26 29 39 43 44 49 44 54 46 61 48 44 48 50 44 45 49 50 53 55 59
77 77 63 42 30 20 14 15 21 26 23 20 21 22 21 19 16 16 23 35 23 25 23 21 20 22 24 37 44 40 39 43 46 40 39 38 40 45 38 38 38 42 44 47 50 49 58 70 64
21 15 13 14 14 16 18 18 28 29 31 26 23 27 22 18 17 18 18 20 23 22 24 25 26 37 45 40 39 47 49 46 40 38 40 41 40 42 45 48 53 53 52 53 51 51 47 49 55
14 14 13 14 15 16 19 17 26 25 28 24 27 25 22 18 18 17 18 20 20 22 27 25 28 51 53 42 46 50 46 40 40 42 40 41 47 48 55 53 51 60 68 61 56 69 71 53 79
16 15 14 15 16 16 21 18 16 32 23 26 22 22 18 18 19 18 18 21 22 25 24 26 30 51 53 48 43 42 40 42 44 42 44 49 58 62 65 77 74 65 65 76 75 60 59 54 64
19 17 16 18 20 20 25 34 12 21 18 25 19 19 19 18 16 18 20 20 22 23 26 32 49 56 53 48 45 44 39 43 47 50 53 60 67 71 80 71 64 73 74 76 66 66 67 75 74
22 21 21 19 19 20 18 29 14 14 17 17 20 19 18 18 19 17 18 20 23 27 43 60 58 47 46 43 46 47 44 49 62 73 80 87 95 92 90 72 64 64 63 61 65 66 74 81 79
28 28 30 33 28 24 25 28 16 18 16 14 15 17 18 18 18 18 18 20 39 63 53 47 42 46 49 46 44 46 54 68 82 91 98 100 82 80 79 70 68 69 73 73 78 97 87 79 58
24 28 30 32 34 32 44 41 20 19 22 16 14 14 14 14 15 18 29 53 57 56 41 42 49 48 44 44 47 54 67 80 92 94 84 70 71 69 62 63 64 58 64 73 72 59 47 32 17
25 25 23 22 23 26 27 22 23 29 28 19 15 16 26 38 46 59 65 68 60 45 42 48 53 60 62 61 65 68 79 84 100 91 77 64 55 54 57 59 61 57 54 50 38 25 17 15 14
51 50 55 51 57 52 36 29 22 23 32 44 58 40 49 55 53 50 45 43 45 47 47 54 59 56 63 73 96 100 100 95 82 65 56 54 57 62 63 51 44 34 31 23 16 14 14 12 12
60 67 67 61 60 53 75 49 52 32 35 38 39 42 42 44 40 38 43 46 42 43 50 60 70 72 89 99 97 88 75 72 64 52 51 58 63 67 39 28 23 16 13 13 12 11 9 7 5
38 39 38 38 46 59 63 66 54 52 49 43 42 42 47 46 46 43 49 52 54 55 61 58 65 93 100 93 77 64 54 53 51 54 54 51 51 36 22 21 18 15 13 12 9 7 6 5 5

GFSSGP_250_rhum_009.txt.gz
RH
100 100 98 100 100 100 100 99 99 100 100 95 88 93 93 87 65 82 69 77 80 70 57 50 53 62 54 36 23 29 38 62 70 83 93 100 100 90 57 32 15 10 12 13 14 15 15 15 15
100 100 98 100 100 100 100 96 100 100 100 91 98 100 99 100 100 93 86 84 72 73 71 77 70 60 49 37 29 34 51 54 73 80 100 95 82 56 25 11 12 13 13 15 15 16 17 18 18
100 100 100 100 100 100 100 100 100 99 100 100 98 100 100 100 93 87 97 100 93 91 89 76 63 49 42 32 31 52 86 96 100 94 92 79 57 26 11 12 13 12 12 12 14 16 16 16 16
100 100 100 100 100 100 100 100 100 100 100 100 100 94 100 100 95 100 100 99 93 87 80 64 53 49 38 34 66 82 100 100 98 89 82 63 33 13 13 14 14 14 13 13 13 13 16 19 18
100 100 100 100 100 96 100 100 100 100 98 100 100 100 100 100 99 89 82 61 64 63 66 52 47 52 56 72 100 100 100 100 99 89 65 25 12 13 14 14 17 17 16 15 16 15 14 15 18
100 100 100 100 100 100 100 99 98 100 100 100 100 100 100 100 83 89 84 78 74 67 61 60 78 84 94 100 100 100 97 95 82 59 25 12 15 16 17 18 18 16 15 14 14 17 16 18 22
100 100 100 100 100 100 98 100 100 100 100 100 100 100 100 89 91 86 75 62 59 58 76 98 100 100 100 100 100 99 92 82 56 22 18 20 19 21 22 20 19 16 16 16 15 20 18 20 22
100 100 100 100 100 100 99 100 100 100 100 100 100 100 82 77 63 51 63 66 82 98 100 100 100 100 100 100 100 93 77 50 25 22 25 24 22 20 19 19 18 17 16 16 17 18 21 23 29
100 100 100 100 100 100 100 100 100 98 100 100 99 99 78 61 68 78 85 100 100 100 100 100 100 100 100 100 92 81 53 24 14 20 24 22 20 21 20 20 20 19 17 17 17 18 20 24 30
100 100 100 100 100 100 100 100 100 100 100 100 98 100 99 82 83 98 100 100 100 100 100 100 100 99 97 91 77 47 23 25 25 23 24 22 21 19 17 18 18 19 21 22 22 23 25 26 31
100 100 100 100 100 100 100 100 100 100 100 100 85 100 100 100 93 100 100 100 100 100 100 100 100 95 86 56 27 22 24 27 23 22 21 19 16 14 14 15 17 18 19 21 21 27 32 35 36
96 99 94 100 100 100 100 100 100 100 100 100 100 100 100 100 100 100 100 100 100 100 100 99 91 66 28 16 25 68 31 26 25 23 22 17 15 15 15 17 20 23 26 27 35 41 41 45 37
34 62 96 97 100 100 100 100 100 100 95 100 100 100 100 100 100 100 100 100 100 100 98 83 42 83 94 100 100 92 82 80 26 22 20 17 16 17 18 19 22 23 26 28 31 36 38 38 44
96 100 90 97 99 100 100 100 100 99 98 100 100 100 100 100 100 99 100 100 100 90 74 77 95 100 100 100 100 100 100 93 71 25 18 20 21 19 20 26 32 34 38 38 37 40 43 47 44
71 75 99 60 73 98 100 99 100 100 100 100 100 100 100 100 100 100 99 96 79 69 33 56 100 100 100 100 100 100 98 75 42 32 22 19 23 29 35 38 40 38 33 30 32 33 40 45 44
84 100 100 97 94 86 74 96 100 98 69 46 29 39 68 75 69 65 54 43 28 19 16 32 91 100 100 100 99 100 94 61 27 18 22 35 41 49 47 40 35 33 35 42 41 36 36 43 46
40 34 30 28 26 26 34 40 28 23 27 34 46 50 51 52 33 27 26 20 16 18 16 17 34 100 100 92 100 69 37 22 20 30 33 33 40 44 44 41 38 40 42 52 50 42 42 39 39
28 30 32 33 29 27 28 34 44 42 45 48 48 38 30 19 16 20 24 20 17 16 28 49 23 32 39 39 24 20 18 26 37 36 36 46 43 38 38 36 38 38 40 42 42 44 48 52 53
37 42 47 53 58 68 63 58 44 42 36 29 22 20 15 17 22 20 17 17 16 16 19 22 26 25 20 23 26 24 22 25 31 38 39 39 40 38 36 39 37 39 40 43 47 50 53 53 48
81 79 66 62 47 50 39 34 33 31 22 23 21 19 18 15 16 17 15 16 16 18 19 18 20 21 23 25 22 21 28 38 42 46 43 42 41 35 33 34 38 43 45 46 45 38 35 39 45
41 35 26 18 18 17 18 14 22 17 16 25 27 27 16 19 17 16 18 17 16 17 18 19 21 23 22 22 27 42 48 48 47 44 42 41 39 38 39 37 38 38 37 42 44 47 50 53 59
14 14 14 15 14 15 16 14 18 19 18 14 23 20 25 22 20 19 17 16 17 18 19 20 20 21 21 40 50 46 38 36 36 36 38 38 38 38 41 51 55 52 57 60 56 57 58 60 63
17 17 17 16 16 15 18 15 15 17 18 32 37 18 17 15 17 19 20 20 20 21 22 19 18 19 44 52 48 38 38 39 41 42 44 49 52 57 60 57 58 63 68 66 67 73 70 62 64
23 23 22 21 21 20 20 21 19 17 16 18 24 27 25 20 17 16 16 17 18 17 16 22 39 54 59 59 50 44 43 51 58 58 57 57 60 67 65 72 68 58 51 54 56 51 49 50 52
22 22 28 32 34 36 34 29 25 25 22 17 18 18 17 18 17 15 14 18 34 43 50 52 54 49 43 41 39 36 36 39 46 44 44 41 54 75 84 76 63 56 54 54 50 44 38 30 27
18 20 22 23 24 23 22 25 27 28 24 21 18 16 15 17 18 21 30 36 41 46 42 40 40 38 35 36 41 44 51 57 56 82 92 96 98 79 59 58 57 52 46 40 32 24 16 14 12
60 58 53 59 58 57 43 49 53 56 51 47 40 28 30 32 36 38 41 38 38 38 36 37 40 46 56 57 57 58 58 60 80 91 91 77 65 58 61 63 56 46 31 22 18 14 12 10 10
52 54 55 56 54 54 49 49 49 47 54 51 51 59 55 41 44 47 48 46 43 43 43 42 43 41 43 51 56 69 86 88 84 79 72 65 61 61 61 57 37 22 16 13 11 10 10 9 8
41 49 46 44 43 44 47 33 32 30 28 30 33 42 52 47 46 42 39 36 42 46 45 42 42 47 53 64 80 86 84 79 78 77 72 72 62 59 42 28 17 12 10 9 9 8 7 5 4
45 38 39 42 47 50 57 45 39 42 35 30 31 34 42 50 47 42 38 44 42 42 42 45 54 74 86 91 95 97 98 84 77 74 58 65 57 32 25 13 9 8 8 8 6 5 4 4 4

GFSSGP_250_rhum_012.txt.gz
RH
100 100 100 100 100 100 100 100 100 100 100 100 100 100 92 91 94 89 92 90 75 72 69 74 84 80 79 81 73 80 57 47 43 42 36 50 66 72 100 88 67 55 26 11 12 12 13 14 14
100 100 100 100 100 100 100 100 100 100 100 100 100 93 99 100 97 83 76 73 74 80 95 96 87 87 86 88 85 68 68 60 53 48 56 75 93 91 81 66 57 25 12 13 13 13 13 13 14
100 100 100 100 100 100 100 100 93 95 100 100 98 95 95 99 93 87 87 82 82 97 99 93 91 91 89 83 77 77 64 54 65 62 79 91 90 84 72 61 27 14 14 14 14 14 13 13 13
100 100 100 100 100 100 100 86 95 100 100 100 100 100 85 80 90 95 91 80 88 99 100 87 77 74 96 94 82 69 71 88 93 98 100 99 88 76 68 43 15 16 16 13 14 13 12 12 11
92 100 99 100 100 100 100 100 100 100 100 100 100 100 100 100 100 100 100 100 93 98 92 87 97 98 83 72 77 89 94 98 98 94 100 100 84 71 49 17 15 15 16 16 16 14 14 12 13
52 100 100 100 99 100 100 100 100 100 100 100 100 100 100 100 100 100 100 100 100 100 100 100 90 78 73 96 100 98 93 95 93 100 98 87 80 56 19 15 16 17 17 16 16 15 15 15 15
32 100 100 100 100 100 100 100 100 100 100 100 100 94 90 99 100 100 100 100 100 100 100 82 70 80 91 92 90 100 100 100 100 100 90 76 54 30 25 24 21 19 19 16 16 15 15 15 17
46 55 100 100 100 100 100 100 100 100 100 100 100 100 100 100 100 100 100 100 100 100 88 67 62 73 91 93 100 100 100 100 100 91 77 52 27 19 17 20 19 18 18 15 15 15 15 16 19
29 31 80 100 100 100 100 100 100 100 100 100 100 93 99 100 100 100 97 99 88 83 83 80 91 93 100 100 100 100 100 99 93 67 48 30 21 18 18 18 18 16 14 14 17 19 19 20 22
31 32 44 90 100 100 100 100 100 100 100 100 100 96 91 93 100 95 85 82 90 90 100 100 100 100 100 100 100 100 95 82 69 57 58 38 24 26 22 20 16 15 15 15 18 22 26 24 24
41 37 59 96 100 100 100 100 100 100 99 93 94 100 100 98 97 100 99 100 100 99 100 100 100 100 100 100 99 89 83 85 76 79 99 83 57 47 37 20 17 16 17 21 20 24 27 30 30
51 47 55 92 100 100 100 100 100 99 100 100 100 100 100 100 100 100 100 100 100 100 100 100 100 100 100 99 90 100 100 100 100 100 98 100 100 72 33 17 19 21 20 21 28 40 41 41 41
61 47 40 68 98 100 100 100 100 100 100 100 100 100 100 100 100 100 100 100 100 100 100 100 100 100 100 100 100 100 100 100 100 100 100 100 95 60 32 22 20 24 27 34 39 44 42 42 42
90 100 100 100 100 100 100 100 100 100 100 100 100 100 100 100 100 100 100 100 100 100 100 100 100 100 100 100 100 100 100 100 100 89 93 76 70 52 28 18 30 36 36 37 37 36 32 31 32
70 85 100 100 100 100 100 100 100 100 100 100 100 100 100 100 100 100 100 93 86 96 100 99 90 83 77 68 100 100 100 100 100 100 100 60 33 23 25 30 33 33 35 33 34 36 35 36 38
67 64 53 63 92 93 98 100 100 100 95 100 100 99 100 100 77 75 47 44 63 73 67 45 44 30 34 47 58 97 96 100 82 72 53 26 29 48 43 43 43 36 33 35 35 32 34 38 42
58 60 61 57 46 48 73 100 100 87 87 91 68 44 43 50 34 33 46 51 48 40 34 60 98 81 57 46 47 45 33 42 25 25 26 22 22 29 42 47 48 48 44 42 40 35 34 38 42
21 28 45 50 41 42 44 55 64 70 34 28 28 30 36 46 42 44 78 83 65 31 62 92 96 87 47 39 32 20 19 19 20 22 21 21 30 37 40 41 41 41 44 43 42 41 40 41 38
18 21 15 19 25 29 29 33 32 34 39 49 59 54 42 37 32 31 37 44 33 43 68 73 55 16 16 17 19 19 21 22 22 21 25 48 49 41 36 33 30 30 29 29 32 35 34 36 35
29 31 35 37 48 52 62 68 65 59 49 42 33 29 29 27 27 31 30 26 44 26 20 16 15 15 16 17 19 22 23 21 20 25 49 53 42 37 33 32 30 29 30 32 32 32 33 36 42
76 80 79 77 63 59 54 37 25 24 21 25 29 28 22 20 24 22 23 20 16 15 16 17 17 17 17 18 20 20 18 21 37 56 56 47 45 42 37 30 29 32 32 34 38 43 47 50 51
47 36 29 28 23 19 16 15 16 16 16 17 19 23 26 20 18 17 16 16 16 16 16 16 16 16 16 17 18 28 45 52 46 43 39 38 34 32 35 42 41 41 46 46 48 53 49 56 70
18 19 17 18 18 17 16 16 16 18 21 22 22 22 24 23 24 18 17 17 15 15 15 15 14 16 24 35 42 42 38 40 41 36 38 43 47 52 58 61 64 59 53 55 53 55 56 57 56
21 20 20 21 22 21 19 19 21 24 28 34 33 33 32 28 23 23 26 22 21 19 23 30 40 42 44 47 46 48 50 44 44 47 50 53 56 57 60 59 55 59 55 58 59 56 51 46 41
25 21 21 24 24 21 25 24 24 25 27 28 28 31 30 28 26 27 21 26 40 38 35 36 38 41 44 49 54 47 44 40 39 46 50 59 70 82 86 74 60 55 55 52 48 45 38 29 22
29 41 38 50 48 56 57 55 49 40 35 38 50 53 58 44 44 33 33 45 51 56 54 54 50 46 40 38 40 44 53 64 64 79 92 82 72 64 54 54 55 51 49 50 41 25 18 12 10
58 57 55 55 52 51 50 54 55 52 44 36 33 32 34 32 28 26 26 24 25 32 40 44 46 49 57 61 59 54 50 58 68 62 51 51 57 60 53 50 51 51 40 26 15 9 8 7 7
48 49 55 53 49 43 38 36 37 36 32 30 32 34 31 29 34 33 32 35 40 42 43 44 50 52 53 54 54 53 51 46 47 49 59 66 61 63 59 49 48 38 26 12 8 8 7 6 4
42 41 46 49 46 37 30 34 34 35 41 42 41 39 41 39 38 41 46 48 48 47 51 53 53 54 53 46 48 56 59 59 62 72 68 61 60 57 46 36 32 17 10 8 7 6 5 4 4
49 51 47 40 48 56 53 51 53 48 45 44 45 43 40 38 40 43 46 48 48 52 53 50 47 46 51 62 62 59 58 64 68 64 62 61 49 37 32 23 10 8 8 7 6 4 4 3 3

GFSSGP_250_rhum_015.txt.gz
RH
17 46 100 100 100 100 100 100 100 100 100 100 99 99 100 100 100 100 100 90 80 93 95 94 87 77 70 58 58 68 61 61 66 61 61 65 57 46 44 45 43 60 73 64 40 25 12 12 12
17 23 82 100 100 100 100 100 100 100 100 100 100 100 100 100 100 100 100 95 93 98 99 97 99 76 58 61 79 82 69 64 60 72 71 57 53 67 50 47 78 66 68 51 33 15 13 13 12
21 19 50 100 100 100 100 100 100 100 100 100 100 100 100 100 85 100 96 98 100 100 100 100 95 87 87 88 84 74 65 61 75 74 59 72 68 53 50 73 83 74 60 42 20 14 14 14 14
26 23 24 78 100 100 100 100 100 100 100 100 100 91 99 100 100 100 100 100 98 82 76 67 68 84 87 77 85 86 84 83 78 63 69 71 63 79 75 96 82 66 61 26 15 14 14 14 13
26 26 23 27 45 97 100 100 100 100 100 92 79 100 95 76 79 92 92 83 85 76 75 70 90 99 85 89 100 100 91 88 73 74 69 70 80 96 98 91 69 64 35 20 18 16 15 15 14
27 26 26 27 33 67 100 100 100 100 100 100 100 100 100 100 100 100 96 87 82 93 100 100 100 100 100 94 91 100 99 75 87 78 87 89 96 100 88 76 69 52 33 21 19 18 16 15 14
28 36 32 29 46 59 100 100 100 100 100 100 100 100 100 100 100 100 100 99 98 88 92 77 99 100 94 100 100 97 100 97 86 100 96 100 100 97 91 70 55 32 19 18 19 18 17 15 13
37 45 47 38 56 100 100 100 100 100 100 100 100 100 100 100 100 100 97 94 88 96 100 100 100 100 100 96 96 97 96 100 96 93 100 100 100 87 76 70 56 34 18 20 20 20 17 16 16
38 43 56 50 63 100 100 100 100 100 100 100 100 100 100 100 94 90 87 97 98 100 100 100 100 100 100 100 100 86 92 100 96 100 100 97 93 84 82 87 69 38 53 53 29 17 16 16 18
49 49 85 90 74 100 100 100 100 100 100 100 100 100 100 100 100 99 100 100 100 100 100 100 100 100 100 97 97 100 94 100 100 100 100 94 96 100 100 81 82 94 65 42 18 17 19 18 19
65 64 90 100 100 100 100 100 100 100 100 100 100 100 100 100 100 100 100 99 100 100 100 100 100 100 100 100 100 93 100 100 100 100 100 100 100 100 94 93 98 85 62 48 24 19 25 27 25
75 68 71 83 69 67 75 100 100 100 100 100 100 100 100 100 100 100 100 100 100 100 100 100 100 100 100 100 100 100 100 100 100 100 100 100 100 100 81 77 80 90 59 51 22 32 35 33 30
98 88 80 78 72 59 53 86 96 100 100 100 100 100 99 87 100 100 100 100 100 99 100 100 100 100 98 95 99 100 100 100 100 100 100 97 90 96 86 91 86 62 31 23 31 38 40 38 36
93 96 92 84 70 67 54 69 96 100 100 100 100 100 100 100 100 100 100 100 100 100 100 100 100 89 99 100 100 100 100 100 93 89 85 89 100 100 100 100 78 44 26 29 39 47 49 44 45
85 88 89 86 84 99 100 99 100 100 100 100 100 100 100 100 100 100 100 100 100 100 88 88 88 78 92 76 72 83 67 48 37 49 80 100 100 100 93 73 22 23 23 27 35 40 41 44 45
79 82 85 86 85 96 100 100 100 100 100 100 100 100 100 100 98 95 97 84 78 67 49 64 84 96 100 100 98 100 73 83 65 64 48 45 34 32 31 22 23 21 32 41 39 39 38 36 36
77 82 80 76 74 73 75 93 98 100 100 100 100 100 98 89 98 96 72 36 47 50 63 92 100 100 100 100 100 100 100 78 73 37 33 22 18 18 20 20 21 24 50 46 40 38 36 34 36
28 31 47 70 66 62 61 60 56 53 68 61 46 48 51 53 53 42 41 50 68 62 60 100 100 100 100 100 100 100 83 55 26 17 17 17 17 18 19 20 24 40 53 57 51 46 44 43 41
12 29 38 46 44 31 28 44 44 31 26 31 34 37 45 55 58 52 44 46 72 58 78 100 100 100 100 97 100 86 60 29 16 16 16 17 18 20 32 44 43 42 40 35 35 35 37 38 38
12 12 10 14 17 19 21 20 28 44 61 64 69 62 54 46 38 37 39 38 42 76 86 65 71 75 74 43 32 20 17 17 16 16 17 21 39 47 38 32 32 33 34 33 30 29 28 28 29
22 30 29 30 34 53 72 79 68 56 51 38 29 22 21 23 26 29 32 32 34 37 36 32 29 23 19 17 18 17 16 16 18 30 43 41 38 37 36 36 35 33 30 28 28 30 30 31 34
64 64 69 79 77 65 58 46 29 23 20 18 18 18 19 20 21 21 21 20 19 19 18 18 17 16 15 15 15 17 19 29 40 37 34 35 37 37 35 33 32 29 32 38 41 45 50 54 48
55 52 39 28 19 16 16 16 18 18 19 19 20 19 20 23 25 23 22 21 17 16 16 17 16 15 16 17 22 29 36 36 35 38 41 42 46 49 39 36 42 46 48 51 47 44 44 46 49
21 20 19 18 18 18 20 23 28 28 30 30 31 35 35 32 32 32 35 29 26 39 42 28 27 34 37 39 43 44 45 47 50 57 55 45 41 44 55 58 56 50 47 45 46 47 47 43 36
21 20 18 19 24 23 24 27 37 51 55 57 57 52 48 44 40 39 38 36 35 35 34 37 41 41 44 49 50 48 48 50 46 41 43 53 62 59 62 61 57 53 42 42 38 39 38 34 32
17 29 40 51 55 52 50 49 49 47 47 46 45 42 40 40 39 34 36 40 39 46 49 54 52 50 48 46 46 49 54 53 56 64 64 65 67 59 51 45 41 36 34 34 36 32 27 24 17
59 50 46 45 47 47 47 43 39 38 39 38 37 39 43 47 46 43 41 40 45 49 53 52 51 53 52 51 54 63 68 62 55 55 64 56 46 46 43 41 38 36 40 35 30 23 16 10 8
44 44 48 52 59 54 50 45 39 37 42 44 46 44 40 37 41 40 41 40 40 42 42 42 46 47 48 52 57 56 55 56 60 61 55 51 51 51 47 45 42 40 29 23 15 9 7 6 6
48 51 54 53 50 47 44 42 45 46 44 42 39 36 34 34 36 41 44 45 44 42 44 46 47 50 55 61 61 56 59 59 54 50 48 48 48 52 48 46 35 22 18 11 7 7 6 5 4
58 58 55 55 53 49 48 45 42 39 38 39 37 33 32 36 38 40 41 44 42 39 39 45 51 54 54 52 60 63 58 48 53 58 61 62 56 47 38 28 21 15 9 7 7 5 4 3 3

GFSSGP_250_rhum_018.txt.gz
RH
14 18 20 21 19 19 22 95 100 100 100 100 100 100 100 100 100 100 100 100 100 97 75 86 92 76 81 90 72 85 59 61 74 56 57 56 52 43 57 53 43 36 34 27 35 57 71 57 42
13 15 22 22 20 20 25 52 100 100 100 100 100 98 100 100 100 100 100 100 97 99 96 78 75 67 76 93 75 73 87 73 58 59 54 55 56 74 77 59 50 42 42 44 68 85 71 55 36
13 16 19 26 26 24 23 38 100 100 100 100 100 100 100 100 100 100 100 100 98 100 80 73 94 90 76 93 87 78 76 62 70 67 59 69 81 83 64 59 50 51 53 76 81 82 64 51 31
14 16 18 26 30 28 25 40 42 100 100 100 100 100 100 100 100 100 100 100 100 100 98 91 92 99 97 90 81 78 66 76 86 70 78 97 85 71 54 60 60 64 56 79 89 75 57 45 20
18 19 23 24 29 32 27 27 38 100 100 100 100 100 100 100 100 100 87 90 88 82 86 87 99 95 78 59 62 95 95 90 92 100 100 98 69 73 68 57 75 74 94 90 81 64 56 27 20
15 17 17 20 29 34 30 29 37 68 100 100 100 100 100 100 100 94 87 78 78 87 93 95 97 68 68 67 100 89 100 93 96 95 78 76 70 68 63 81 86 93 95 86 80 66 48 30 41
19 19 17 19 27 34 35 32 39 70 95 100 100 100 100 100 100 100 100 100 98 100 85 93 94 100 98 100 100 100 98 100 94 78 91 84 67 98 89 94 100 100 89 85 86 70 41 51 38
24 23 26 30 32 41 45 42 43 72 100 100 100 100 100 100 100 100 100 100 100 100 100 100 100 97 100 97 100 100 88 100 99 100 79 98 95 95 93 100 95 98 82 89 82 68 60 56 40
33 31 34 37 46 49 60 64 61 84 94 100 100 100 100 100 100 100 100 100 100 100 100 100 100 100 100 100 100 100 99 89 94 91 100 100 97 100 100 100 100 100 96 86 81 78 67 54 53
38 39 44 45 48 60 65 93 97 98 100 100 100 100 100 100 100 100 100 100 100 100 100 100 100 100 100 100 100 99 100 96 92 100 100 98 100 100 100 99 96 95 82 81 57 52 64 60 45
57 50 50 67 69 76 76 84 100 100 100 100 100 100 100 100 100 100 100 100 100 100 100 100 100 100 100 100 100 100 90 99 100 100 100 100 100 100 100 100 97 86 77 75 63 72 77 60 40
58 69 75 85 79 86 82 87 100 100 100 100 100 100 100 100 100 100 98 96 100 100 100 99 100 97 100 100 100 100 100 100 100 100 100 100 100 100 100 96 90 72 84 78 96 93 66 28 26
91 81 85 92 100 97 100 100 100 100 100 100 100 98 87 93 88 89 93 92 94 99 97 92 100 92 100 99 100 100 100 100 100 100 100 100 99 91 79 43 34 61 80 56 73 97 94 26 24
100 92 84 82 91 99 95 100 100 100 100 100 100 100 100 100 100 100 100 100 100 93 100 100 100 100 94 78 95 100 100 100 100 95 77 61 62 65 76 85 76 52 51 34 33 33 25 23 23
93 93 89 94 100 100 86 85 83 89 100 89 86 83 100 100 100 100 100 98 100 100 100 94 100 91 71 52 91 92 93 82 69 48 43 48 55 65 94 83 40 24 23 21 21 21 20 21 21
93 90 91 91 96 100 98 91 86 96 100 100 100 100 100 100 100 100 100 99 95 100 99 88 90 74 67 100 100 100 100 100 100 97 76 99 96 93 85 45 19 19 19 20 19 18 20 24 33
75 88 91 91 89 90 86 81 80 81 84 92 94 99 100 100 97 86 94 98 92 78 64 59 66 89 85 100 100 100 100 100 100 96 100 87 75 61 39 23 19 18 18 17 18 24 34 39 37
80 91 99 100 98 97 96 87 81 78 73 71 68 67 71 65 62 75 66 42 38 46 47 63 100 100 100 100 100 84 98 100 100 100 100 100 52 31 20 17 17 17 19 31 38 39 40 39 37
64 59 60 69 70 67 71 77 74 69 67 49 46 46 33 28 30 36 47 55 60 62 52 89 100 100 97 100 100 100 100 100 100 95 83 30 20 20 18 18 21 29 36 37 39 41 40 41 43
4 3 4 8 14 27 36 38 28 21 28 33 36 44 58 68 67 46 34 35 36 78 79 80 84 86 85 80 98 92 74 58 34 29 25 20 21 26 30 36 40 42 40 38 39 42 46 44 42
8 12 14 17 17 10 14 20 33 50 65 74 72 51 34 28 20 20 23 29 28 30 38 41 36 34 35 32 27 22 21 22 22 23 27 38 38 44 50 52 48 46 40 34 32 33 34 34 34
12 12 20 22 29 52 72 78 66 52 43 36 23 17 16 17 19 20 19 19 20 24 24 23 26 25 26 27 23 23 26 26 32 40 46 52 52 47 45 42 36 34 40 41 37 33 39 50 54
43 42 57 68 63 42 28 23 21 20 18 18 19 20 21 21 24 30 30 33 33 32 34 39 35 30 29 37 42 40 41 41 41 37 34 34 37 38 41 46 46 42 37 46 58 57 54 50 46
52 44 30 21 20 22 22 20 21 23 27 29 26 30 46 48 44 39 35 34 34 36 36 34 31 30 30 30 31 35 39 40 40 40 42 51 52 49 45 43 48 65 64 56 52 46 42 38 35
25 23 23 25 22 22 24 25 27 30 40 44 45 42 38 39 42 48 47 43 41 39 37 35 34 34 34 34 38 40 41 42 44 48 50 49 45 49 65 72 67 58 50 44 40 37 32 32 29
24 22 26 26 28 34 39 44 43 41 40 40 44 51 52 46 42 39 37 35 36 38 40 44 46 45 44 43 43 45 47 47 47 49 57 71 76 71 69 60 49 45 45 39 36 29 22 20 17
39 53 47 41 35 33 34 39 45 46 47 45 42 40 40 41 38 37 38 35 32 28 27 29 33 37 39 38 41 43 47 59 81 83 77 66 59 56 50 50 54 46 40 33 26 18 14 11 8
43 39 38 40 44 46 47 48 48 46 42 40 38 36 33 33 34 33 32 33 32 37 44 44 48 56 58 58 66 73 75 78 74 66 58 47 51 55 52 47 39 32 28 22 14 10 8 6 6
40 41 44 50 53 52 52 51 48 42 38 36 36 36 34 36 36 42 51 57 59 57 55 53 54 52 54 60 64 65 64 61 58 48 52 62 58 51 44 41 30 25 16 11 8 7 6 6 5
52 52 54 55 54 58 52 45 41 38 37 38 44 43 44 43 40 46 54 55 57 55 51 54 56 58 61 62 62 59 58 56 50 57 62 59 61 52 45 33 19 13 10 8 7 6 6 4 4

GFSSGP_250_rhum_021.txt.gz
RH
12 12 13 14 16 18 23 22 24 20 26 45 74 95 98 100 100 100 100 100 100 100 100 100 100 95 88 80 66 68 52 45 62 67 53 75 59 64 83 63 39 61 88 33 26 31 39 50 55
15 15 14 14 16 19 25 28 27 25 23 34 54 100 100 100 100 100 100 100 100 100 100 100 100 100 100 100 70 63 71 78 67 68 91 78 43 61 68 54 74 92 47 36 40 36 71 70 79
13 14 14 14 15 16 21 28 30 29 28 28 91 100 100 100 100 100 100 100 100 100 100 98 86 95 83 82 82 64 71 81 74 90 77 42 68 68 55 99 65 59 39 38 47 65 67 82 81
8 10 11 12 12 13 19 21 22 31 31 30 38 84 100 100 100 100 95 100 100 100 100 100 100 100 78 64 51 60 90 89 100 78 46 80 80 74 100 83 57 72 63 63 66 73 82 98 91
9 8 9 10 11 12 15 18 20 30 34 32 37 42 100 100 100 100 100 100 100 100 100 97 80 77 79 97 94 86 90 77 56 49 88 82 95 95 60 61 46 72 58 71 68 91 99 92 86
10 9 9 10 11 11 13 16 20 30 36 36 49 52 100 100 100 100 100 100 100 100 100 100 98 98 100 98 99 73 55 54 88 94 92 82 58 87 68 59 58 68 74 82 93 99 99 92 82
15 12 10 11 14 14 20 23 27 32 38 38 80 100 100 100 100 95 100 100 100 100 100 100 100 96 100 100 77 72 98 81 95 99 100 94 80 67 90 99 77 80 80 88 94 99 94 88 66
18 15 15 17 18 19 23 27 29 34 42 60 78 100 100 100 100 100 100 100 100 98 87 88 98 88 92 100 99 91 100 98 77 99 100 80 97 100 97 86 96 90 92 100 100 97 85 86 70
30 30 31 30 34 26 28 34 39 43 62 100 100 100 100 100 100 100 100 100 100 100 100 90 83 99 98 100 100 100 100 100 92 100 86 93 90 92 100 96 91 100 100 92 90 86 70 64 66
47 50 50 42 45 45 44 42 52 72 70 99 100 100 100 100 100 100 100 100 100 100 100 98 100 100 100 100 100 100 100 100 100 98 100 100 100 88 100 100 98 97 99 89 81 71 46 35 35
71 72 74 71 60 60 66 60 70 72 77 77 89 100 100 100 100 100 100 100 100 100 100 100 100 100 100 93 100 100 84 100 100 100 96 100 96 99 92 100 100 100 97 85 65 46 46 53 45
81 87 95 82 83 79 61 61 84 92 90 100 100 100 100 100 100 100 100 100 100 100 100 100 100 97 96 94 89 100 100 100 100 97 90 89 86 84 99 99 82 61 55 52 52 76 60 30 23
100 92 96 93 90 100 97 96 99 99 100 99 100 100 100 100 100 100 100 100 100 100 100 100 92 91 100 100 100 100 100 100 99 93 86 91 85 69 72 57 52 50 59 65 78 71 57 27 19
100 100 100 100 100 100 100 100 100 99 100 98 98 100 100 93 95 82 79 85 78 67 86 88 94 100 100 100 100 100 100 100 96 87 100 89 63 42 44 44 50 61 63 83 80 70 32 19 19
100 100 100 100 100 100 100 99 99 99 84 97 100 100 100 100 100 100 100 100 93 100 96 89 82 92 100 100 100 100 100 100 97 76 98 78 46 52 47 54 68 65 66 48 27 17 18 18 18
96 100 100 96 98 100 100 100 100 100 98 91 91 96 100 100 99 98 78 79 97 86 82 90 99 99 95 81 83 100 97 95 98 92 96 100 94 93 100 79 77 100 86 64 29 18 18 20 29
98 99 100 98 90 90 92 97 98 98 92 86 88 98 96 90 100 99 100 96 84 81 91 86 87 73 62 83 100 100 100 100 100 100 100 100 100 100 95 86 100 93 58 37 24 27 44 48 46
97 100 94 99 98 94 96 100 96 100 100 90 84 82 82 78 75 70 60 46 43 41 39 40 50 69 90 100 99 100 100 100 100 100 100 100 100 100 84 83 56 38 24 25 46 56 52 52 51
100 100 98 86 85 85 84 90 96 91 85 88 88 80 71 66 40 39 43 47 48 50 55 59 71 63 97 100 100 100 100 100 97 100 100 100 100 84 62 28 24 27 49 55 51 50 46 43 42
100 99 84 85 86 84 81 72 54 38 39 46 55 52 31 28 36 51 63 60 42 32 30 38 55 50 54 81 46 54 63 81 91 81 79 60 31 24 32 44 58 57 52 53 48 45 47 50 50
42 28 15 8 6 9 12 17 22 26 23 20 29 46 59 64 55 40 28 19 16 17 19 21 22 24 25 31 36 28 27 30 35 33 35 41 50 57 55 52 56 55 51 49 49 46 44 44 46
6 4 4 8 13 19 27 38 54 61 64 68 65 52 22 16 16 20 24 26 29 35 39 39 40 40 39 40 46 52 53 46 44 44 42 43 48 50 47 45 45 45 44 44 47 53 53 53 51
10 19 23 29 55 74 66 61 66 54 40 19 17 20 25 28 27 37 45 44 42 40 39 39 39 39 39 40 41 43 42 42 42 44 44 42 40 39 41 44 44 44 46 56 56 52 51 50 48
30 41 50 60 55 49 49 27 23 18 21 24 30 42 51 55 50 45 44 44 42 40 39 39 38 37 35 34 34 33 34 36 37 37 36 36 36 39 44 46 48 52 52 54 54 54 51 43 42
50 48 40 27 20 19 20 22 24 28 36 52 59 56 55 54 52 49 45 42 38 34 32 30 30 31 32 32 33 34 35 36 37 33 33 42 45 45 48 54 63 61 57 60 55 44 38 36 32
25 18 19 20 22 31 47 54 56 53 52 51 52 51 50 46 42 37 32 31 30 30 33 38 40 41 40 40 39 38 36 34 37 44 50 56 61 62 63 60 56 58 65 55 44 42 31 21 13
22 23 32 46 56 54 53 53 54 55 53 51 49 43 38 34 31 30 34 35 34 35 39 43 44 46 48 52 64 74 75 73 72 70 64 62 57 56 54 66 67 69 58 47 33 24 16 11 9
32 45 42 42 44 43 47 50 52 51 48 43 37 36 37 40 43 46 46 46 47 47 48 59 68 70 67 61 58 58 60 60 56 56 54 52 53 63 72 76 72 55 42 27 17 14 10 8 7
43 40 39 41 43 47 51 54 51 44 40 38 37 41 46 50 54 68 74 77 80 92 95 96 80 71 67 60 59 57 50 50 55 52 50 58 66 75 76 70 55 40 24 16 12 9 8 7 6
46 50 52 53 51 54 58 53 49 43 42 42 41 46 60 61 66 68 66 76 86 85 85 81 73 63 53 52 52 49 52 51 49 60 67 78 74 73 60 56 46 33 17 12 10 9 7 5 5

GFSSGP_250_rhum_027.txt.gz
RH
8 10 11 13 14 15 17 20 19 21 23 22 21 19 19 22 34 40 39 54 81 45 52 60 59 77 85 89 95 70 80 94 97 98 92 88 72 72 75 66 62 52 58 52 49 41 46 43 42
10 9 10 10 14 14 16 16 18 20 29 28 28 25 23 21 22 27 26 52 58 63 89 100 100 84 59 62 64 82 74 82 87 81 88 88 80 63 55 53 42 45 68 65 56 62 50 47 57
10 9 9 9 12 13 13 12 17 22 26 30 33 33 29 26 26 26 29 53 63 68 100 100 100 100 100 100 97 87 75 70 62 85 82 58 45 43 68 64 96 84 74 92 76 67 65 69 65
9 10 10 10 10 10 10 12 15 20 24 24 26 30 31 28 26 25 26 35 40 60 99 100 100 100 95 100 98 74 90 83 53 49 56 56 73 97 100 98 98 100 100 83 56 100 65 81 88
9 11 10 11 11 10 11 10 12 15 16 19 22 25 25 23 22 22 22 32 32 54 82 79 69 97 97 100 86 88 86 95 93 89 99 100 100 100 97 100 99 70 65 71 97 94 94 94 76
10 10 10 10 10 10 11 10 11 11 12 11 13 17 19 20 19 19 20 41 46 61 89 100 100 100 100 100 100 100 100 99 94 100 100 100 97 96 100 84 81 96 100 100 70 88 88 80 84
10 10 10 9 8 9 10 10 12 10 10 9 9 11 13 15 16 21 29 65 97 100 100 100 81 100 100 100 100 100 100 100 100 100 100 100 100 98 95 92 100 97 98 96 86 83 82 70 72
16 15 11 12 10 10 10 9 8 9 16 8 9 18 11 12 16 38 65 99 99 100 100 100 100 100 100 100 100 100 94 100 100 100 100 100 100 88 100 100 100 100 95 90 79 73 68 63 67
23 21 19 17 20 18 13 12 13 10 10 8 9 22 28 15 21 37 60 99 100 100 100 95 100 100 100 100 90 100 100 99 100 100 95 86 99 100 100 98 97 98 87 83 66 76 69 59 65
33 38 37 27 26 46 46 21 27 26 24 27 27 30 36 31 39 72 75 95 100 100 100 96 100 100 100 95 100 100 97 89 80 100 100 100 100 92 96 83 80 85 88 70 67 66 52 49 41
48 52 42 50 52 55 60 49 45 47 59 73 70 51 55 47 58 99 100 100 100 99 100 100 100 100 100 100 100 97 90 100 100 97 91 89 93 91 90 82 88 85 71 68 61 48 37 34 28
72 76 85 88 78 82 64 83 76 89 99 100 93 62 67 68 64 100 100 100 100 100 100 100 100 100 100 100 97 97 100 100 100 93 81 86 88 88 90 99 98 83 64 51 38 29 32 36 35
100 100 100 100 93 98 92 89 97 96 85 100 100 80 69 88 99 100 100 100 100 100 100 100 100 100 100 100 100 99 91 100 99 93 81 76 80 80 78 74 65 55 40 42 33 46 62 63 64
100 100 100 100 100 100 98 90 93 94 86 86 81 84 87 72 100 100 100 100 100 100 100 100 100 96 100 100 98 94 85 86 92 77 74 86 96 93 79 61 61 53 66 55 55 85 75 100 100
100 100 100 100 100 89 100 100 100 100 100 100 96 93 100 98 94 100 100 100 100 100 100 100 100 100 98 84 78 69 96 100 80 76 83 78 79 73 82 88 95 94 93 85 100 100 100 100 97
100 100 100 100 100 98 100 96 99 99 100 100 99 99 100 94 100 89 97 100 100 100 99 91 92 77 74 100 100 100 94 89 88 79 85 86 88 100 100 100 100 100 100 100 97 100 100 99 99
100 100 100 100 100 100 100 94 91 100 100 100 91 99 97 93 82 100 100 100 100 99 100 100 100 100 100 96 100 99 100 100 100 98 100 100 100 100 100 100 99 95 95 100 97 82 78 85 81
100 100 100 100 100 97 100 97 100 98 86 96 97 88 78 100 100 87 88 95 100 100 100 100 100 93 86 75 73 66 81 90 100 100 99 87 84 87 94 99 99 93 89 88 75 90 89 54 44
96 97 93 100 100 100 100 96 91 93 93 100 100 100 100 100 100 100 100 94 82 76 71 73 70 71 52 45 46 51 55 72 87 63 79 97 89 86 65 99 100 100 94 90 84 52 42 41 41
100 97 100 100 100 98 100 100 100 99 100 100 100 100 100 100 100 96 88 88 80 71 59 42 37 46 56 52 45 27 22 25 29 33 55 80 42 40 42 50 46 42 44 41 34 36 41 43 49
97 100 100 100 97 100 98 97 100 100 94 90 85 85 87 78 52 34 32 33 36 47 50 32 22 32 38 33 32 31 30 31 31 32 33 34 35 36 36 39 41 37 35 37 40 41 46 52 55
100 100 100 100 100 100 99 100 98 98 81 70 51 28 23 26 31 53 57 41 23 24 32 34 44 35 31 30 30 31 31 33 35 36 39 39 43 40 39 39 41 39 37 39 47 50 53 57 59
100 100 97 90 88 99 76 58 34 9 10 39 42 49 60 62 31 20 24 36 37 37 36 34 32 31 30 32 35 38 42 44 51 53 50 49 45 44 39 36 35 43 48 50 53 58 64 62 57
79 76 73 63 50 30 13 10 19 30 70 58 52 49 26 24 35 38 40 38 36 34 34 35 39 40 40 40 41 42 46 69 83 96 94 88 66 50 44 46 48 51 53 58 59 56 55 55 59
17 18 27 22 10 8 26 46 43 40 34 31 24 27 38 36 42 41 38 36 37 40 43 43 47 56 58 58 67 71 74 79 76 77 69 63 58 56 53 50 50 54 56 54 55 56 54 55 48
23 48 25 20 31 53 56 40 29 25 31 43 37 35 39 45 41 39 40 43 45 40 42 47 53 55 54 67 77 77 78 78 73 61 68 62 56 51 50 52 60 66 66 60 56 54 55 48 43
23 38 60 66 54 37 29 29 45 46 42 41 44 48 51 45 40 43 46 46 37 35 37 48 54 54 52 68 73 75 76 78 72 71 76 70 59 52 53 63 68 68 68 67 66 58 48 41 29
63 64 54 35 26 30 55 52 45 44 48 53 54 54 50 46 47 48 44 44 39 38 42 44 42 50 63 79 84 81 81 86 79 77 76 65 56 56 65 69 69 76 77 71 68 56 48 39 29
48 31 30 35 58 61 49 45 46 52 60 65 63 58 52 49 49 47 56 50 41 38 40 46 54 60 60 68 77 82 82 80 81 86 70 58 59 63 70 77 76 72 74 69 59 50 42 27 20
31 30 51 70 67 56 52 58 61 67 70 71 73 67 62 58 54 53 56 44 38 36 42 54 63 56 58 61 74 81 90 87 86 70 62 62 67 71 74 74 78 81 77 67 54 40 31 19 15

GFSSGP_250_rhum_030.txt.gz
RH
5 5 5 5 6 9 12 14 10 13 22 23 20 21 19 22 37 21 33 62 72 79 72 58 59 52 48 64 68 46 44 56 52 51 62 56 60 51 58 60 57 48 44 42 29 31 40 85 64
6 5 6 6 8 9 12 8 6 12 13 17 18 19 20 25 24 21 24 49 36 36 45 39 43 48 53 71 92 100 100 92 89 71 80 74 62 83 65 53 56 46 55 69 42 94 79 71 61
6 6 6 7 8 10 12 9 9 12 13 14 18 19 19 22 24 26 26 27 32 35 41 52 53 46 62 71 99 100 100 100 99 99 100 72 71 57 66 67 64 95 88 90 100 96 84 69 55
7 6 6 7 8 11 8 6 9 12 18 30 27 18 18 20 23 27 28 30 36 39 42 48 50 60 66 64 100 100 100 100 100 100 97 100 86 96 82 80 100 100 100 100 90 97 87 64 100
7 7 7 8 9 9 8 10 11 12 13 14 24 16 15 16 21 23 24 27 31 39 48 59 80 86 86 81 68 59 80 100 100 100 100 99 87 90 100 100 100 96 89 95 89 87 98 100 100
8 8 8 9 10 12 8 13 13 13 13 14 22 15 13 12 12 14 49 65 91 82 91 84 81 82 78 90 62 83 100 99 100 100 100 100 100 100 98 95 100 100 100 100 100 100 100 100 93
14 10 9 10 9 8 10 12 12 14 45 27 22 15 16 17 13 12 14 50 72 53 68 98 100 94 95 98 100 100 100 100 100 100 100 100 100 100 100 100 100 100 100 99 100 100 99 85 81
15 11 10 11 10 11 13 12 12 20 49 15 22 64 49 24 17 14 29 28 58 53 88 100 100 100 100 100 100 100 100 100 100 100 100 100 100 100 100 100 100 100 95 100 99 85 74 60 70
19 14 15 16 13 12 22 36 53 34 28 16 34 35 20 49 53 34 71 77 100 100 100 100 100 100 100 100 100 100 100 100 100 100 100 100 100 100 99 100 100 95 90 94 85 82 77 68 60
37 26 22 14 16 18 43 98 100 65 68 27 31 20 37 100 98 86 100 100 100 100 100 100 100 100 99 100 100 100 100 100 100 100 100 100 100 100 90 96 92 100 100 92 84 76 68 66 57
45 43 34 32 44 32 94 100 96 75 34 14 28 78 81 70 99 91 78 100 100 100 100 100 100 100 100 100 100 100 100 100 86 100 99 100 100 100 97 100 99 100 93 85 82 73 62 53 39
56 56 57 60 79 85 100 100 100 95 61 95 96 82 100 88 68 61 75 100 100 100 100 100 100 100 100 100 100 100 100 100 100 100 100 100 100 100 100 99 95 92 77 63 53 49 46 39 34
84 83 84 100 100 61 100 100 100 96 73 93 99 100 100 100 81 54 94 100 100 100 100 100 100 100 100 100 100 100 100 100 100 100 100 100 100 100 94 86 78 70 58 48 41 36 31 30 46
100 100 100 100 100 100 86 74 88 82 95 79 100 100 96 87 96 82 100 89 100 100 100 100 100 100 100 100 100 100 100 100 100 100 100 100 91 88 69 60 59 51 43 38 39 42 59 82 98
100 100 100 100 100 100 100 100 98 75 84 99 100 100 100 100 98 72 93 99 96 100 100 100 100 100 100 100 100 100 100 100 100 100 100 90 77 70 55 70 54 41 49 54 59 87 93 100 100
100 100 100 100 100 100 100 93 98 91 92 97 100 100 100 100 79 100 100 100 100 100 98 100 100 100 100 100 100 100 100 100 99 87 83 61 58 66 63 50 50 61 76 82 83 73 84 93 96
100 100 99 100 100 100 95 78 95 88 82 74 88 87 82 80 81 80 75 84 100 100 100 100 100 100 100 100 98 98 87 88 82 69 80 76 69 62 72 91 100 100 93 84 78 70 64 55 40
100 100 100 100 100 100 94 86 97 100 99 99 97 100 92 80 74 82 100 90 100 100 100 100 98 89 93 96 96 89 87 100 88 79 62 57 59 90 100 99 74 88 64 90 82 63 42 41 37
100 96 100 88 99 100 99 87 89 83 80 100 80 75 96 100 100 87 98 100 100 83 100 100 81 77 94 92 100 90 87 67 52 49 46 27 26 32 36 37 39 39 37 37 32 29 28 30 32
100 100 98 97 90 94 100 100 100 95 98 82 86 98 96 99 100 100 100 83 100 91 96 95 82 63 64 59 49 44 42 37 32 31 34 36 36 32 27 27 27 26 26 26 27 29 33 40 46
100 97 85 90 98 100 100 100 99 100 91 98 98 100 100 100 100 100 100 96 90 72 60 45 37 42 46 43 36 35 31 26 25 26 28 30 32 33 32 33 39 44 49 51 51 50 52 52 54
100 92 89 82 92 96 97 98 93 86 94 93 91 73 76 76 76 74 76 42 26 42 51 40 25 28 31 29 26 24 26 26 29 32 35 38 39 41 50 57 66 64 61 56 57 59 52 47 53
90 90 96 98 99 100 100 73 87 98 73 91 69 65 40 25 17 16 42 51 42 24 31 33 29 27 25 26 34 37 40 40 38 42 53 61 68 70 65 64 62 60 59 58 56 52 51 57 55
92 87 90 100 100 100 94 68 100 76 59 81 95 79 43 46 54 44 26 30 39 35 30 28 30 37 45 41 37 36 36 36 39 49 53 58 62 59 63 66 55 48 49 49 49 54 53 51 49
98 89 98 100 100 90 99 97 59 20 71 100 100 99 46 26 24 31 42 39 33 30 30 33 34 37 34 36 35 36 41 38 44 51 67 76 70 74 72 67 61 63 58 54 53 54 50 50 53
85 79 82 70 53 57 64 46 32 47 62 76 92 29 32 43 45 40 38 34 34 36 39 41 36 37 39 36 33 36 41 46 51 55 64 74 78 69 68 61 62 58 57 57 56 61 63 54 44
48 29 22 34 49 67 57 81 74 45 29 28 36 46 46 42 40 39 35 35 37 39 43 44 40 40 42 36 35 38 45 52 56 59 68 83 81 80 66 65 67 68 72 66 63 57 50 49 54
31 49 36 81 77 84 66 42 30 29 45 47 43 40 38 39 40 43 41 41 41 47 54 49 43 39 41 40 38 42 41 55 61 66 78 88 87 83 72 71 73 85 81 68 71 66 64 61 52
31 26 58 73 70 42 26 36 41 49 45 41 39 40 42 44 50 52 54 53 49 48 52 62 63 45 48 58 54 50 56 59 65 78 93 92 86 76 71 80 91 77 69 68 71 71 61 48 38
80 84 61 46 30 33 49 66 54 48 42 40 42 47 56 63 64 65 62 61 67 71 65 68 75 65 81 78 69 74 61 66 81 86 70 72 68 71 82 92 79 67 76 80 70 60 49 39 29

GFSSGP_250_rhum_033.txt.gz
RH
5 5 5 4 4 6 6 6 6 5 6 8 9 13 18 21 20 20 23 23 22 22 25 44 38 51 70 79 68 79 72 52 47 46 67 81 70 55 66 65 61 59 75 58 59 44 35 23 36
6 5 5 5 6 6 6 6 6 6 8 10 10 16 19 20 22 20 20 23 24 23 25 56 75 69 89 92 46 44 45 55 59 63 65 100 100 100 100 100 98 92 83 72 63 50 44 85 100
5 5 6 7 8 8 6 6 7 7 9 10 9 9 13 17 18 24 24 22 27 24 25 35 47 75 63 44 40 47 64 57 52 60 64 100 100 100 100 100 100 100 100 82 49 64 93 100 100
6 6 6 7 8 8 7 7 8 7 12 14 13 12 17 22 20 15 16 31 31 27 25 28 29 36 34 53 57 49 47 60 82 63 81 98 100 100 100 100 100 100 82 60 100 100 91 54 77
8 8 7 8 8 8 7 6 6 7 8 13 14 14 16 15 15 19 32 55 48 63 73 62 47 35 40 44 48 60 99 100 98 100 87 88 94 98 100 100 89 90 100 100 100 88 100 99 97
10 10 9 9 8 8 7 8 10 8 8 9 11 13 14 14 32 53 58 45 90 97 98 100 99 76 76 83 96 100 100 100 94 100 100 100 97 100 94 100 77 98 83 100 100 99 98 95 100
19 14 13 11 11 9 7 8 13 10 11 12 10 13 16 42 49 35 22 62 100 89 100 100 100 100 100 100 100 87 68 58 94 87 98 100 97 86 98 100 100 100 96 100 100 100 98 99 100
22 22 18 15 13 10 10 12 17 14 13 17 12 12 23 20 47 49 32 46 50 100 100 100 100 100 100 100 100 100 100 90 100 100 100 100 100 100 94 95 100 86 100 98 100 100 83 98 75
42 100 100 50 16 9 12 23 34 62 73 93 43 19 17 40 100 100 100 63 63 100 100 98 100 98 100 100 100 100 100 100 100 100 100 100 100 100 100 100 98 100 100 100 80 84 98 92 89
55 91 43 22 14 18 15 30 55 100 100 100 82 86 88 90 100 100 100 100 99 62 82 100 100 100 98 100 100 100 100 100 100 100 100 100 100 100 100 100 100 100 100 98 92 94 97 89 77
97 99 37 34 23 36 82 79 100 100 100 85 84 88 100 100 100 100 82 100 100 100 100 100 100 100 100 100 100 100 100 100 100 100 100 100 100 100 100 100 100 100 100 98 100 93 88 86 73
100 88 75 49 40 100 100 100 100 100 68 55 73 99 100 100 100 100 98 100 100 100 100 100 100 100 100 100 100 100 100 100 100 100 100 100 100 100 100 96 100 100 100 96 100 95 84 72 61
98 84 86 85 74 98 94 83 100 100 100 64 100 69 99 100 100 83 100 100 100 100 100 100 100 100 100 94 98 100 100 100 100 100 100 100 100 100 100 100 100 98 100 100 96 84 70 52 51
86 99 100 94 85 100 100 100 100 100 100 76 100 64 100 96 99 92 100 100 100 100 100 100 100 100 100 100 100 100 100 100 100 100 100 100 100 100 100 100 100 92 98 92 77 69 56 45 38
97 100 100 100 100 58 100 100 100 100 98 100 100 80 63 100 100 100 100 100 100 100 100 100 100 100 100 100 100 100 100 100 100 100 100 100 100 100 95 93 90 96 84 73 67 58 48 40 37
100 100 100 100 94 62 100 100 100 100 100 93 90 99 68 100 100 100 85 79 97 100 100 100 100 100 100 100 100 100 100 100 100 100 100 100 100 100 99 89 94 96 75 77 54 43 42 52 44
100 100 100 100 100 100 92 78 70 80 84 73 97 100 100 100 100 100 100 87 71 72 100 100 100 100 100 100 100 100 100 100 100 100 100 100 100 100 99 90 80 79 56 36 26 26 31 31 30
100 100 100 86 100 100 100 94 86 100 94 95 92 94 100 100 100 100 100 89 78 82 98 100 100 100 100 100 100 100 100 100 100 99 87 81 87 86 76 72 54 38 25 26 28 28 30 34 36
100 100 77 90 100 100 100 100 86 100 100 92 83 97 100 85 99 97 100 100 95 92 98 100 100 100 100 100 100 97 98 89 89 80 78 74 68 58 40 28 24 25 25 30 34 34 36 47 49
100 100 100 100 100 98 90 100 89 84 98 96 99 100 100 99 93 72 79 100 100 100 100 88 83 86 88 94 93 93 81 68 59 54 45 38 28 25 24 25 31 35 37 39 43 47 50 48 46
85 76 90 100 100 90 92 82 78 100 99 94 86 88 90 90 85 90 97 100 100 100 100 97 98 87 68 70 68 65 56 41 34 28 24 22 25 27 30 37 43 47 49 53 58 60 59 55 53
81 96 100 100 100 100 100 100 99 100 95 91 99 100 99 100 95 87 72 81 84 96 90 86 76 66 46 36 38 34 29 27 24 25 26 28 28 37 40 43 47 55 63 61 53 52 54 58 56
98 96 100 98 98 91 82 87 85 78 57 53 73 93 95 96 73 76 74 60 52 36 32 47 46 39 32 30 30 27 26 27 29 28 27 30 35 39 47 51 52 55 58 62 69 66 65 63 60
83 100 96 97 100 100 95 99 98 84 91 91 100 76 43 54 76 97 70 52 49 43 35 32 32 33 31 28 28 29 30 27 26 27 30 30 32 39 45 50 56 63 67 69 65 59 56 50 46
100 83 98 98 92 100 92 88 62 73 83 99 61 33 26 41 67 94 77 42 34 36 39 38 32 28 29 28 29 30 29 28 27 26 27 30 35 40 48 57 60 56 53 58 57 55 56 59 58
94 77 92 99 89 84 84 84 72 80 76 84 50 59 53 92 88 56 24 38 45 44 38 33 34 34 35 38 33 34 33 31 30 28 32 40 58 55 56 60 58 57 58 58 60 66 64 62 59
94 79 88 99 95 80 81 48 49 22 39 53 57 92 100 100 98 34 49 50 45 40 37 37 37 39 43 47 48 52 48 44 38 44 55 68 59 59 58 57 67 67 64 69 72 72 65 58 59
95 78 80 70 40 33 31 54 63 46 36 51 44 38 83 87 42 45 49 50 50 46 44 45 48 54 62 66 67 63 50 50 60 63 66 59 64 61 52 61 72 72 73 79 74 65 58 62 69
70 65 53 35 52 83 62 99 98 68 42 34 33 37 44 41 46 49 42 42 44 46 47 46 48 56 61 63 59 56 53 59 58 56 56 60 66 59 56 71 80 79 81 73 68 62 64 65 56
43 25 20 57 36 86 68 85 58 34 34 43 51 54 44 46 46 50 48 47 50 49 51 54 51 50 57 70 64 56 50 50 48 53 65 67 61 58 65 80 90 89 78 73 59 60 64 52 46

GFSSGP_250_rhum_039.txt.gz
RH
5 5 6 5 5 6 7 8 8 9 9 8 8 7 7 8 10 9 9 10 11 10 10 16 17 20 21 22 22 22 22 23 23 24 27 27 29 29 30 54 54 58 61 48 39 54 60 57 78
7 7 7 6 6 6 6 7 7 8 9 9 8 8 8 8 9 8 8 9 10 10 12 14 15 18 23 28 28 27 26 28 26 28 31 34 36 35 62 76 70 70 68 54 58 64 59 92 89
7 8 8 8 9 7 6 6 6 7 8 10 9 8 8 8 9 10 10 9 14 19 18 22 19 21 20 18 20 23 24 28 31 39 48 48 48 58 81 97 97 77 62 68 62 70 74 90 98
7 8 8 9 10 10 8 6 6 6 7 10 11 9 9 13 10 10 9 10 21 19 15 20 18 17 15 18 19 18 29 44 48 52 61 74 99 100 95 100 100 86 66 60 67 85 93 85 95
9 9 9 8 10 10 11 9 7 7 7 8 9 9 9 11 10 10 11 15 20 30 27 14 14 16 19 20 23 36 54 64 69 82 80 96 99 100 100 100 98 91 88 97 89 76 91 100 98
12 12 10 10 9 10 11 12 10 9 8 8 10 11 10 10 10 11 11 10 33 32 29 27 46 52 73 60 63 63 73 84 88 80 81 88 96 94 91 88 99 100 96 81 76 63 78 83 67
18 16 15 10 10 12 12 12 12 11 10 10 12 14 21 10 10 12 13 19 26 88 90 99 67 75 74 70 96 94 100 100 100 100 100 100 100 99 89 91 93 79 58 57 85 74 60 53 87
30 25 28 13 15 11 11 11 12 13 14 14 19 53 38 20 29 33 29 26 58 93 100 100 100 100 100 72 100 100 100 75 83 97 92 86 73 62 48 53 52 50 59 55 66 92 100 100 98
37 38 31 14 17 13 13 14 22 15 17 73 54 51 86 39 23 24 42 84 99 100 100 100 100 100 100 100 100 97 100 100 94 73 90 84 89 91 100 80 80 81 96 100 100 100 100 100 98
54 87 29 29 42 31 25 20 33 60 97 92 54 91 78 44 18 23 48 100 98 100 100 96 100 100 100 100 100 100 95 97 100 100 100 100 100 100 84 91 100 99 100 100 100 85 86 99 90
56 37 38 55 97 74 58 53 46 71 100 99 100 97 58 32 50 37 60 84 100 100 100 100 100 100 100 100 100 100 100 100 100 95 99 100 100 100 100 100 100 88 100 82 74 88 100 84 82
52 49 60 90 100 100 100 85 100 74 93 100 100 87 55 100 78 85 86 100 100 100 100 100 100 100 100 100 100 100 100 100 100 100 100 100 96 94 100 100 100 100 87 100 100 100 99 100 84
96 78 86 98 100 100 100 100 100 100 100 100 99 71 100 100 94 96 78 96 100 100 100 100 100 100 100 100 100 100 100 100 100 100 100 99 94 99 100 100 100 100 100 100 97 94 92 88 83
100 87 100 100 100 100 100 92 98 100 100 97 90 99 95 100 100 100 100 98 100 100 100 100 100 100 100 100 100 100 100 100 100 100 100 92 100 100 100 100 100 100 100 91 100 97 80 78 77
100 99 99 100 100 100 98 67 100 100 100 88 100 100 100 100 100 100 100 100 100 100 100 100 100 100 100 100 100 100 100 100 100 100 100 100 100 100 100 100 88 100 92 85 94 90 85 88 82
91 98 100 100 100 100 97 83 100 100 97 82 100 100 100 100 100 100 100 100 98 82 100 100 100 100 100 100 100 100 100 100 100 100 100 100 100 100 100 100 100 100 99 89 93 89 80 73 59
100 77 100 100 100 100 100 100 100 100 100 97 100 100 100 100 100 100 97 100 100 100 100 100 100 97 100 100 100 100 100 100 100 100 100 100 100 100 100 100 94 92 94 82 83 78 63 44 36
100 87 98 100 100 100 100 100 100 100 100 100 100 86 98 100 100 100 100 100 96 100 100 100 100 100 100 100 100 100 100 100 100 100 100 100 100 100 98 90 94 91 82 73 72 56 40 32 29
98 100 100 100 100 100 100 99 100 100 100 100 100 84 100 100 94 100 100 100 100 100 100 100 100 100 100 100 100 100 100 100 100 100 100 100 99 85 82 84 79 64 54 47 37 32 30 28 27
100 100 100 100 100 100 100 100 100 100 100 94 95 90 88 100 100 100 100 100 100 100 100 100 100 100 100 100 100 90 86 100 100 96 100 98 85 76 64 50 43 39 35 31 29 28 25 26 28
100 100 99 97 100 94 100 100 100 100 100 95 88 94 100 100 98 99 98 94 100 100 100 100 100 100 100 98 98 93 99 95 85 87 86 76 60 47 38 35 32 30 29 28 29 31 30 28 26
87 100 100 92 84 89 100 100 100 72 70 81 77 80 98 100 100 98 93 92 91 96 91 100 100 100 87 82 72 72 71 65 68 65 57 46 39 34 33 32 30 29 29 31 28 29 27 26 30
72 74 93 95 85 96 100 100 100 100 89 100 98 100 100 100 100 100 89 72 73 71 68 70 70 68 67 67 66 66 61 58 53 53 37 36 35 32 31 31 32 32 32 34 36 36 37 42 46
93 87 98 99 89 91 94 100 100 98 86 92 92 100 100 86 90 88 96 90 92 69 62 61 49 41 49 82 93 84 94 81 41 40 38 34 34 38 36 33 36 39 39 40 43 48 47 47 45
100 100 99 87 85 72 68 76 85 96 100 100 100 99 79 70 57 49 54 57 67 64 72 93 85 98 100 100 96 96 73 41 37 36 37 41 41 39 42 44 41 43 46 47 46 45 44 45 50
91 98 100 98 83 81 98 91 76 78 70 70 76 83 81 75 66 60 64 46 58 86 97 100 100 100 100 100 86 48 42 40 40 40 38 41 45 44 46 44 43 46 48 50 50 51 50 56 56
76 82 84 88 84 66 69 86 88 79 78 64 61 63 62 61 24 22 12 16 70 100 100 100 100 99 93 58 45 44 44 44 37 39 45 54 50 46 43 43 46 52 53 54 53 53 55 60 72
60 86 71 74 73 74 75 89 99 83 69 62 45 44 30 21 31 49 51 59 59 71 81 78 84 62 47 46 48 45 39 40 44 48 56 57 53 54 54 60 58 56 57 60 59 63 72 79 77
33 72 86 89 78 70 81 100 91 78 62 35 28 33 34 40 52 46 48 38 39 44 49 55 50 47 48 47 43 44 43 41 46 47 55 66 64 69 66 62 56 57 60 62 68 77 86 81 75
34 33 42 61 78 81 72 73 68 63 52 42 49 40 66 63 46 48 54 62 59 60 57 49 50 48 47 54 34 34 40 46 51 60 65 63 64 60 54 54 56 63 68 69 79 87 79 84 84

GFSSGP_250_rhum_042.txt.gz
RH
7 6 6 5 5 5 6 5 6 7 7 9 10 10 10 10 11 10 12 10 9 9 9 9 10 10 10 11 14 16 17 19 17 19 20 25 26 27 29 30 28 28 26 22 25 24 37 51 56
8 8 8 7 8 7 7 7 6 6 7 9 10 10 9 10 11 12 16 11 10 10 11 11 11 12 12 18 18 17 18 20 24 22 22 22 23 26 26 25 28 27 24 28 26 32 45 52 70
8 8 8 8 8 8 8 8 7 6 7 9 11 9 10 10 11 11 13 12 13 15 21 17 20 24 29 31 27 23 23 23 22 21 22 22 19 23 24 29 29 34 34 29 42 76 86 93 76
9 8 8 9 8 8 10 9 9 8 7 8 9 13 10 12 11 11 11 11 27 40 43 36 35 49 44 33 27 19 20 20 19 20 19 23 25 29 37 39 38 46 52 62 72 78 83 89 92
11 10 10 10 10 8 9 9 9 9 10 9 7 9 9 11 10 10 10 12 35 64 83 61 36 25 21 21 26 29 29 26 27 33 28 47 51 52 42 52 72 89 83 95 90 96 97 95 76
10 11 12 12 9 9 9 10 11 12 11 11 9 7 9 11 14 19 16 19 28 64 68 74 42 19 22 31 50 44 50 50 53 59 55 49 50 67 88 89 67 75 82 85 75 78 74 53 66
11 13 14 14 15 12 10 10 10 11 13 14 11 10 12 13 17 25 27 20 22 22 30 91 98 41 55 78 74 82 78 86 83 92 79 63 82 91 87 80 68 77 75 58 50 49 61 48 49
12 14 17 22 22 14 12 11 11 13 16 13 15 14 16 13 19 28 14 17 14 19 27 46 100 83 98 99 100 100 100 90 81 84 79 79 90 84 78 88 79 58 46 67 89 48 34 45 66
14 18 25 28 24 18 16 14 15 16 26 18 18 24 34 44 51 34 38 15 12 20 76 81 100 100 100 100 100 100 100 98 100 97 100 100 97 95 86 71 58 74 100 92 43 56 91 100 70
18 24 34 36 41 62 32 23 23 28 39 23 24 87 75 93 88 54 42 35 31 44 75 100 100 100 100 100 100 100 100 100 100 100 99 97 89 75 72 78 99 90 71 94 100 100 88 100 90
31 47 49 60 74 79 61 43 91 98 75 70 66 76 84 91 82 53 56 41 80 90 72 100 100 100 100 100 100 100 100 100 100 100 100 100 97 81 97 100 100 100 97 91 100 98 100 100 100
35 66 68 94 100 100 97 95 100 100 100 100 67 86 98 93 85 44 75 37 100 100 78 100 100 100 100 100 100 100 100 100 100 100 100 100 100 100 100 92 87 80 99 100 99 100 99 100 94
42 66 75 100 100 100 100 100 100 100 100 100 100 100 99 85 100 45 41 75 100 100 100 100 100 100 100 100 100 100 100 100 100 100 100 100 100 100 100 100 100 100 100 100 96 88 84 100 96
56 71 93 99 100 100 100 96 100 100 100 100 100 92 83 100 99 92 88 100 100 100 100 100 100 100 100 100 100 100 100 100 100 100 100 100 100 100 100 100 100 100 100 78 100 100 95 87 76
75 70 100 87 88 100 100 99 97 100 100 100 99 96 100 100 100 100 100 100 100 100 100 100 100 100 100 100 100 100 100 100 100 100 100 100 99 100 100 100 100 100 100 99 88 87 82 81 83
99 78 94 100 100 100 97 88 96 92 100 92 100 100 100 100 100 100 92 100 100 100 100 100 100 100 100 100 100 100 100 100 100 100 100 100 100 100 99 98 100 100 100 95 89 86 88 80 73
100 93 84 99 100 100 80 87 94 100 100 100 100 100 100 100 100 100 99 83 95 100 100 100 100 100 100 100 100 100 100 100 100 98 100 100 100 100 86 98 98 100 94 95 83 77 65 52 47
100 96 86 82 100 99 88 99 100 100 100 96 100 100 100 100 100 100 100 97 98 84 76 88 100 100 100 96 98 100 100 100 100 100 100 100 100 99 100 96 90 94 93 79 61 44 38 35 33
94 99 88 100 100 100 98 83 100 100 100 100 92 100 100 100 100 100 100 100 94 79 85 92 66 69 66 68 84 94 86 100 100 100 100 100 97 98 100 100 83 80 66 48 36 32 31 30 30
89 100 100 100 100 98 100 100 98 100 100 100 100 100 100 99 100 100 100 100 100 100 100 100 95 94 96 98 98 100 100 100 100 100 100 100 100 98 83 76 65 53 39 33 30 31 31 36 42
71 73 99 100 100 90 85 90 100 100 100 100 100 94 97 95 92 85 100 100 100 100 100 99 99 100 100 100 100 97 95 98 100 97 88 83 76 71 67 57 41 34 32 32 36 40 42 42 36
80 77 96 100 100 87 74 95 100 100 100 100 100 97 94 76 78 74 88 100 100 100 100 100 100 100 100 100 100 84 96 98 87 72 74 74 72 68 51 37 34 33 38 41 40 39 38 37 40
99 95 80 96 99 85 67 86 78 73 86 78 84 85 84 90 88 80 86 95 94 94 100 98 100 100 100 99 94 81 66 63 61 72 65 67 71 45 39 37 36 40 42 42 42 43 43 41 40
80 100 99 85 100 100 99 78 98 80 99 65 66 87 99 100 99 85 84 82 81 77 65 62 70 94 89 75 67 64 68 67 57 54 51 61 42 42 40 40 41 46 51 46 41 38 41 49 54
66 95 98 99 91 98 100 97 100 99 94 100 98 97 91 99 100 100 98 90 67 56 55 53 63 70 76 76 79 93 94 80 63 75 49 42 43 44 42 44 48 48 39 38 43 49 53 57 55
59 83 96 90 92 88 92 75 72 95 84 89 86 86 89 89 76 71 77 66 75 82 86 86 71 75 83 89 100 100 97 80 84 59 45 46 44 40 41 42 41 42 52 62 67 64 59 56 60
52 56 90 100 94 90 92 96 74 93 95 100 100 100 98 97 92 74 66 80 74 64 81 82 83 86 100 100 100 99 85 60 55 52 47 42 42 45 46 49 53 58 65 67 67 62 60 60 61
22 48 72 84 87 95 100 99 96 86 98 100 100 100 100 100 100 90 75 42 50 68 83 92 98 100 100 95 69 58 73 62 53 47 46 45 49 51 52 56 58 63 68 71 68 60 57 59 68
21 33 56 80 95 96 97 100 94 85 87 99 93 90 87 58 54 46 38 49 51 48 45 51 56 60 65 76 62 59 63 78 52 52 43 48 58 61 58 60 62 63 61 64 58 53 56 62 63
26 19 25 52 95 98 100 98 88 100 90 100 90 80 71 52 47 42 56 53 43 45 50 60 58 65 87 89 83 82 81 63 61 51 54 59 59 58 62 53 50 57 64 63 59 60 66 62 68

GFSSGP_250_rhum_045.txt.gz
RH
7 6 6 6 6 6 6 6 5 5 5 5 7 8 10 12 12 12 12 12 10 10 12 12 12 12 12 11 12 13 16 17 18 18 20 22 20 21 29 28 23 20 20 18 18 17 18 18 20
8 7 8 7 8 7 7 7 8 6 5 8 6 7 10 13 12 12 13 14 11 11 10 11 11 12 12 12 12 14 17 18 18 20 24 22 20 20 17 16 17 16 18 18 16 17 18 25 29
9 9 9 9 9 8 8 8 9 8 7 9 12 9 14 11 10 11 17 23 20 12 12 12 11 12 14 14 15 18 21 21 23 25 31 27 25 18 16 17 19 17 18 17 19 23 23 30 35
10 10 11 11 11 10 8 9 9 10 9 10 9 11 10 12 13 18 15 19 16 17 19 16 21 31 18 16 15 17 23 23 38 37 35 31 25 21 20 18 18 18 19 24 33 41 43 47 73
12 11 12 11 12 11 9 8 9 10 10 8 9 10 12 10 12 14 15 14 28 23 17 24 38 50 33 22 25 30 33 36 33 34 31 27 22 19 19 24 26 31 36 39 57 50 56 70 59
12 10 10 11 11 13 12 10 9 11 12 10 10 11 18 22 29 24 18 19 30 43 59 36 49 59 54 40 51 44 41 43 44 38 36 32 40 36 41 45 45 64 59 46 57 63 62 52 55
12 10 11 12 13 14 15 14 12 13 12 11 11 12 14 20 24 44 31 31 64 96 87 69 75 81 37 54 56 52 52 52 64 73 91 82 94 92 73 77 75 65 67 64 70 67 55 53 43
16 12 13 17 21 26 25 20 20 22 18 12 13 16 14 21 25 40 54 44 48 100 100 100 100 100 90 89 96 100 87 100 100 100 96 99 86 76 71 74 68 64 73 79 84 66 51 42 50
22 14 18 26 39 41 39 27 34 51 42 29 17 16 16 18 38 36 51 76 68 78 72 74 52 61 100 100 97 100 100 100 100 98 75 64 65 63 57 94 89 68 76 72 60 66 55 88 76
26 20 25 41 46 54 43 46 48 76 58 26 26 33 50 32 36 46 91 76 49 52 37 40 64 100 100 100 100 100 100 100 100 100 100 100 99 94 96 99 100 100 86 53 61 88 97 100 100
25 27 36 67 88 98 76 76 80 80 67 62 57 59 76 58 94 85 68 71 36 63 53 58 100 99 100 100 100 100 100 100 100 100 100 100 98 99 100 97 98 77 70 79 100 100 68 100 89
32 40 62 95 100 100 100 99 80 70 69 85 78 86 64 68 62 85 78 58 39 40 95 100 100 100 100 100 100 100 100 100 100 100 100 100 100 100 100 98 100 100 100 100 100 100 100 97 100
40 50 77 100 100 99 96 100 100 94 95 78 55 91 87 67 70 59 56 70 79 98 100 100 100 100 100 100 100 100 100 100 100 99 100 100 100 100 100 100 100 100 100 95 100 100 100 100 97
54 68 95 100 100 100 98 100 100 100 100 98 95 94 73 66 63 89 84 85 100 100 100 100 100 100 100 100 100 100 100 100 100 100 87 100 100 100 99 100 100 100 100 100 100 97 97 100 89
61 80 89 100 100 96 100 100 92 100 100 100 91 95 69 90 98 100 100 100 100 100 100 100 100 100 100 100 100 100 100 100 95 99 100 98 100 100 100 100 100 100 100 100 100 84 92 87 72
60 98 81 99 87 76 77 92 97 100 100 100 91 99 91 100 100 100 100 100 100 100 100 100 100 100 100 100 100 100 100 100 100 100 100 100 99 94 98 100 100 99 91 100 92 83 83 81 75
62 96 99 93 83 74 60 85 100 87 99 100 100 100 100 100 100 100 100 100 100 100 100 100 100 100 100 100 100 100 100 100 100 99 100 100 100 100 100 100 100 100 100 99 94 81 85 77 54
65 85 94 92 88 89 82 91 98 100 100 99 100 100 100 100 100 100 100 91 99 100 100 100 100 100 100 100 100 100 100 100 100 100 100 100 100 100 100 100 92 92 90 92 78 72 54 43 34
62 75 99 98 82 70 78 92 91 100 100 100 92 100 100 100 100 100 100 100 80 87 100 100 100 100 100 100 100 100 100 100 97 100 100 82 100 100 100 89 100 94 76 70 65 50 38 34 36
68 77 77 99 100 100 72 75 90 100 100 100 88 90 100 100 100 100 100 100 96 66 60 58 85 96 93 91 90 84 95 98 97 78 75 91 100 96 100 92 82 70 70 62 45 34 36 40 39
60 65 90 92 87 100 100 100 88 92 100 100 100 100 91 100 99 98 100 100 100 100 97 84 76 69 62 66 76 71 91 72 73 79 100 100 95 72 70 69 64 63 56 38 36 38 40 39 42
55 70 79 100 94 98 100 100 100 98 100 100 100 100 100 100 100 100 100 100 94 95 100 100 100 99 96 88 90 95 85 93 88 89 86 87 73 63 69 66 60 48 39 39 39 39 38 43 43
31 68 82 92 99 97 93 89 92 82 76 92 100 100 100 100 97 86 77 75 88 67 67 80 91 93 93 90 84 85 77 74 93 80 67 56 54 66 66 66 50 46 45 44 43 45 46 42 44
29 62 73 98 99 94 86 68 78 88 85 98 87 82 92 97 94 88 81 81 91 83 83 83 91 92 90 94 94 93 82 72 66 69 68 62 58 62 78 64 53 52 47 42 43 46 44 46 44
29 39 74 83 94 98 96 81 93 98 88 94 100 98 98 87 77 60 69 88 89 92 90 80 73 71 72 72 68 80 84 88 81 90 94 96 77 71 55 51 50 42 38 40 42 42 43 50 56
33 26 60 72 88 99 100 87 89 91 97 100 100 100 99 100 95 95 94 85 74 81 91 86 74 74 82 97 100 100 100 89 100 100 100 82 63 48 48 53 47 39 39 48 51 54 61 64 61
35 28 28 69 77 99 100 100 100 94 92 98 98 100 92 99 93 88 83 88 99 100 99 85 71 58 55 69 82 92 97 100 100 88 69 61 57 56 67 57 40 43 51 52 52 55 60 58 58
36 36 27 42 78 92 100 100 100 90 99 100 100 97 90 91 87 83 82 85 87 80 79 63 70 84 75 83 90 100 100 88 80 93 100 90 64 65 73 54 52 53 50 52 56 61 63 68 70
34 39 35 27 72 85 90 99 100 98 94 93 100 100 100 100 100 92 90 82 68 57 66 66 67 77 97 90 75 77 96 100 100 100 100 80 90 92 85 66 64 53 50 53 59 67 66 69 66
36 42 41 28 33 87 100 95 72 91 100 94 92 97 100 100 100 100 91 73 59 68 70 54 49 55 68 75 96 100 100 100 100 98 99 85 78 85 77 75 64 60 60 58 70 75 76 63 65

GFSSGP_250_rhum_048.txt.gz
RH
9 8 7 6 7 6 6 6 5 5 5 6 5 6 6 7 8 23 20 15 15 14 14 13 13 13 13 14 16 16 17 19 22 23 26 26 26 23 24 24 23 20 18 18 14 14 15 14 15
9 8 8 7 8 7 7 6 5 6 6 7 7 7 7 6 7 20 41 16 16 13 14 16 14 14 13 13 15 17 18 19 22 24 28 28 25 25 26 21 20 21 18 16 14 14 15 14 14
11 10 9 9 9 9 9 8 7 7 7 7 8 8 9 8 8 8 16 21 18 22 17 14 14 14 12 12 14 15 18 18 17 19 22 24 22 25 24 20 16 17 18 19 19 15 14 14 15
14 10 10 12 11 10 12 12 11 9 9 9 8 9 11 16 26 24 15 14 23 20 22 19 17 14 15 14 13 15 18 19 17 18 17 18 20 21 19 27 27 25 23 20 18 15 15 18 24
13 10 12 13 10 11 13 14 14 11 10 11 10 11 11 11 70 78 35 41 31 25 18 19 25 27 19 21 18 22 26 21 20 21 22 22 26 30 34 33 28 24 21 17 16 22 27 41 46
13 11 15 14 12 12 14 15 15 13 11 12 12 12 12 11 34 56 56 42 34 38 74 38 56 41 32 30 42 34 32 38 42 44 41 45 43 48 42 35 29 27 26 30 36 42 54 64 60
13 14 18 16 13 13 14 16 15 13 11 11 11 12 13 20 22 27 49 60 56 94 100 100 97 72 51 56 54 69 59 51 58 53 47 52 59 67 54 49 49 70 77 74 70 71 71 69 57
13 20 23 19 15 16 18 20 21 16 13 11 12 31 18 15 17 24 39 65 63 70 94 100 100 100 100 100 100 100 93 78 64 70 59 94 97 75 76 73 84 73 68 64 55 69 61 64 62
15 27 28 24 21 29 34 36 33 27 25 16 13 17 31 26 25 20 30 52 69 100 100 100 100 100 100 100 100 100 100 100 100 100 100 100 100 100 88 72 68 53 51 72 71 85 64 69 61
21 35 30 34 38 44 60 62 53 58 62 52 28 21 27 20 31 31 29 34 70 100 100 100 100 100 100 100 100 100 100 100 100 100 96 100 100 100 100 100 100 100 78 92 95 80 76 61 96
25 39 40 43 44 74 76 77 73 80 91 84 68 31 73 54 31 38 40 58 54 94 100 100 96 100 100 100 100 100 100 100 100 100 91 100 100 100 100 95 98 100 100 100 91 71 84 88 83
28 45 50 54 87 99 89 100 99 89 100 100 100 64 90 51 57 25 34 34 40 34 100 100 100 100 100 100 100 100 100 100 100 100 100 100 100 100 100 100 100 100 100 90 91 92 88 98 100
30 51 62 82 87 98 90 87 96 96 100 100 98 89 97 97 62 44 25 25 41 40 96 98 100 100 99 100 100 100 100 100 100 100 100 100 100 100 100 100 100 98 81 81 91 100 100 100 100
30 58 83 96 100 88 99 93 78 91 100 100 100 100 99 84 74 54 37 51 47 48 69 100 100 100 100 100 100 100 100 100 100 100 100 100 100 100 100 99 100 97 94 100 98 100 80 93 96
29 56 94 100 100 95 100 98 82 96 85 100 100 100 95 92 90 86 82 85 84 78 76 100 100 100 100 100 100 100 100 100 100 100 100 99 100 100 100 100 87 82 62 64 83 100 100 100 88
33 58 73 95 87 80 83 100 100 92 97 100 88 90 99 95 77 98 100 87 100 100 100 100 100 100 100 100 100 100 100 100 100 100 100 100 100 100 100 100 100 100 100 100 100 100 100 92 75
42 51 69 87 100 88 94 96 97 94 99 100 93 97 100 99 100 100 100 100 100 100 100 100 100 100 100 100 100 100 100 100 100 100 100 100 100 100 100 95 97 93 93 99 100 82 96 88 76
38 47 64 72 92 81 76 82 92 93 74 92 100 92 93 88 100 100 100 100 100 100 100 100 100 100 100 100 100 100 100 100 100 100 100 100 100 100 100 100 100 100 98 88 86 84 70 59 59
26 49 57 65 76 85 94 83 100 100 98 95 88 100 99 96 100 100 100 100 100 90 100 100 100 100 100 100 100 100 100 100 100 100 94 93 100 93 95 91 90 96 91 90 74 64 56 56 45
26 40 53 69 76 61 98 75 99 100 100 86 90 92 94 95 93 100 100 100 89 87 74 89 100 100 100 100 100 100 100 100 100 99 92 89 93 93 93 96 80 94 84 78 65 55 50 38 35
29 32 53 59 82 100 90 77 72 93 100 99 91 71 94 92 84 100 100 100 100 100 89 75 73 85 100 100 100 100 100 100 87 89 82 77 79 78 86 82 79 74 70 58 50 47 36 37 38
26 29 49 61 70 100 100 100 93 90 84 97 100 100 100 100 96 100 94 100 99 100 100 95 84 85 62 58 71 70 71 71 62 57 59 73 79 76 68 68 62 58 47 48 50 41 41 46 44
29 30 35 65 69 90 100 99 88 72 70 83 91 100 100 100 100 98 100 68 85 90 83 85 77 77 86 99 100 83 86 87 76 72 73 76 66 67 73 64 64 63 62 68 57 52 55 52 45
33 30 30 48 75 74 82 92 88 76 90 83 84 100 100 100 100 83 82 77 70 69 67 67 64 65 62 62 62 68 65 60 64 69 72 76 76 78 70 78 76 65 68 70 60 50 53 48 48
36 30 32 36 57 76 72 82 97 95 97 99 79 74 90 100 100 99 100 99 91 87 84 70 75 71 67 67 62 60 59 77 72 68 79 81 88 96 96 73 61 50 50 55 57 60 53 47 48
39 30 34 32 39 74 80 77 92 100 100 100 100 96 83 91 100 87 99 100 100 100 100 94 95 85 72 80 82 79 78 100 100 97 98 99 100 98 80 61 53 50 59 59 64 60 50 47 48
42 32 37 41 34 58 78 65 63 96 100 100 100 98 90 71 71 66 70 76 85 95 97 82 77 82 86 95 80 88 86 100 100 100 100 100 97 93 96 55 52 76 84 68 70 56 57 60 56
46 37 36 40 47 41 76 72 57 63 97 100 100 92 100 100 93 88 79 81 75 77 79 86 99 100 88 73 51 71 96 100 100 100 100 93 100 100 93 84 99 100 90 74 61 66 62 66 54
49 43 36 40 46 46 42 70 75 67 66 95 100 92 89 93 92 88 75 70 66 66 73 83 82 68 60 54 65 89 98 100 100 90 98 100 100 100 100 100 100 97 80 64 67 69 62 66 58
53 45 38 40 41 52 62 80 84 74 87 85 90 75 77 81 79 75 65 66 65 71 81 79 63 58 59 55 53 60 72 77 86 100 100 100 100 100 100 100 100 83 66 65 81 90 84 78 82

GFSSGP_250_rhum_051.txt.gz
RH
17 15 14 13 11 7 6 6 5 5 5 5 15 21 6 6 30 19 97 99 68 37 28 16 18 21 16 13 13 13 14 15 17 20 22 23 22 19 20 20 19 20 18 17 14 15 16 14 14
19 15 14 14 9 7 6 6 5 6 6 15 6 6 5 27 98 63 100 100 69 45 30 31 27 20 21 23 20 18 15 17 21 22 22 21 22 22 20 18 17 17 17 18 18 16 16 14 15
20 15 14 11 8 8 8 8 9 9 9 9 8 6 44 92 93 99 98 100 100 98 76 52 31 25 24 18 22 19 18 19 23 21 20 23 21 20 18 17 18 17 18 18 17 17 16 17 18
22 17 18 11 8 8 10 10 9 9 11 12 9 8 8 14 16 100 100 100 95 100 99 74 28 23 27 22 18 20 21 22 23 20 19 24 21 20 17 19 20 19 20 17 18 22 22 25 18
24 22 14 9 10 11 14 12 10 10 12 14 12 9 8 10 11 49 89 100 99 82 100 91 54 43 39 38 38 30 28 25 26 21 22 26 21 20 24 24 26 24 22 21 22 27 26 23 18
23 20 12 12 15 18 16 12 11 12 14 14 12 10 9 11 12 12 12 17 48 75 71 92 89 73 54 38 38 41 40 40 36 35 34 34 28 32 38 37 36 35 37 39 39 35 29 22 29
28 15 13 14 20 21 19 15 13 14 14 14 13 12 12 20 19 14 16 16 11 19 74 100 100 100 84 47 43 45 54 65 79 68 57 55 51 55 58 56 66 64 69 53 45 38 33 51 47
26 14 13 19 30 27 22 18 16 16 17 16 16 16 20 18 19 36 33 47 36 98 79 100 100 100 100 100 97 82 82 81 92 96 85 80 74 70 86 63 77 82 56 51 55 49 48 51 45
22 16 16 29 42 38 32 31 26 22 22 18 16 14 56 54 27 35 54 63 68 98 100 100 93 100 100 100 100 100 100 95 100 100 100 100 100 100 86 100 90 70 63 47 52 48 51 55 68
24 17 19 32 40 48 42 46 49 44 45 35 24 24 31 89 33 30 43 70 74 87 100 80 100 100 100 100 100 100 100 100 100 100 100 100 100 95 96 100 100 100 99 100 90 84 95 97 76
24 18 24 39 48 69 74 57 70 73 64 75 82 62 73 98 86 50 27 38 68 79 100 100 100 100 100 100 100 100 100 100 100 100 100 100 100 100 100 100 100 100 100 99 87 92 92 92 78
22 20 33 54 74 93 93 66 94 99 93 69 78 100 100 100 100 58 42 25 48 60 98 100 100 100 100 100 100 100 100 100 100 100 100 100 100 100 100 100 100 96 99 97 100 100 93 91 86
23 20 38 58 95 85 83 81 92 89 93 97 99 100 100 100 100 57 32 35 26 46 100 80 94 100 100 100 100 100 100 100 100 100 100 100 100 100 100 100 100 100 100 100 100 100 99 86 76
23 21 38 66 91 81 76 82 78 99 97 99 100 99 100 100 92 53 24 25 28 32 94 100 99 97 95 100 100 100 100 97 100 100 100 100 100 100 100 100 100 100 100 100 92 86 93 79 84
27 22 38 61 99 70 99 100 93 100 100 100 100 100 100 100 73 70 61 47 23 19 52 100 100 100 100 100 100 100 100 100 100 100 100 100 100 100 100 100 100 100 100 92 68 100 100 100 100
28 24 41 56 73 78 100 100 96 85 100 100 94 96 100 77 85 98 90 75 37 39 53 28 100 100 100 100 100 100 97 100 100 100 100 100 100 100 100 100 100 100 98 96 96 86 95 85 98
30 24 38 52 69 76 81 100 100 100 100 99 77 82 100 94 84 100 100 100 100 100 100 70 84 100 100 100 100 100 100 100 100 100 100 100 100 100 100 100 100 100 100 96 100 100 94 76 98
30 24 29 58 54 97 100 100 87 100 90 94 92 86 99 90 86 100 100 98 100 92 100 100 94 100 100 100 100 100 100 100 100 100 100 100 100 100 100 100 100 99 100 100 85 74 100 98 93
34 26 25 55 55 67 80 81 90 100 75 96 85 100 89 96 95 100 100 100 100 100 100 100 100 100 100 100 100 100 100 100 100 100 100 100 100 100 100 100 100 96 87 87 87 87 95 85 72
42 30 26 38 63 54 76 81 71 95 95 92 100 100 100 93 100 100 100 86 84 100 80 86 100 100 100 100 100 100 100 100 100 100 100 100 100 100 99 97 91 86 94 89 82 77 64 57 52
47 31 27 28 65 60 54 63 92 100 98 100 93 98 100 93 100 100 100 100 100 82 79 65 56 90 100 100 100 100 100 100 100 100 100 100 100 98 98 94 93 80 81 74 59 54 56 53 55
53 34 30 27 51 67 66 58 69 82 87 98 93 98 88 90 82 75 100 100 100 100 100 100 100 75 68 100 100 96 100 99 100 100 96 98 100 94 86 85 86 69 61 54 53 57 52 52 49
70 38 31 28 30 71 70 98 76 75 78 64 87 71 98 100 100 81 76 93 100 100 100 100 100 100 100 97 90 77 86 93 80 74 67 62 66 72 73 67 59 49 52 59 66 62 57 53 43
75 42 34 30 31 32 75 73 68 80 80 77 82 77 76 96 82 100 99 100 100 100 98 88 86 71 78 75 72 67 57 47 52 61 74 80 72 64 53 47 54 62 67 77 73 76 56 53 60
84 47 40 34 30 31 45 88 76 63 69 74 86 83 86 100 100 100 96 86 78 62 59 55 50 68 71 52 54 57 54 59 62 54 51 53 51 50 47 61 65 78 87 85 80 64 53 59 61
88 57 46 39 35 34 37 60 92 82 68 65 81 93 76 67 71 93 87 80 84 78 68 62 70 88 79 72 85 79 82 65 53 62 55 55 52 59 80 99 100 100 93 76 58 51 61 66 68
87 73 52 44 36 32 37 32 72 84 69 72 70 84 98 100 84 75 87 82 75 90 90 79 77 77 72 68 92 100 100 79 62 68 58 49 81 100 100 100 100 100 83 63 89 84 77 81 83
75 86 63 51 36 35 31 36 33 76 70 63 64 81 100 88 93 85 77 79 79 87 87 82 76 73 72 68 64 67 61 54 63 58 77 100 100 100 100 100 100 100 96 100 91 100 94 98 94
92 99 76 56 40 37 34 40 38 34 65 79 65 68 74 75 74 97 100 98 98 91 90 88 86 87 80 77 68 61 50 50 64 60 82 98 100 100 100 100 100 100 100 100 100 94 88 87 74
100 100 84 64 46 39 39 47 37 36 37 90 97 77 64 60 60 57 62 72 69 68 67 64 74 79 79 78 82 68 69 67 66 71 87 99 100 100 91 98 100 100 100 100 92 84 79 77 75

GFSSGP_250_rhum_054.txt.gz
RH
36 27 22 17 16 13 12 11 9 8 6 5 6 15 10 7 9 5 8 100 100 100 100 100 100 56 16 16 18 17 17 16 15 15 15 14 16 17 15 15 16 16 15 15 14 15 12 12 12
27 22 20 17 14 13 11 9 7 5 6 6 6 30 39 65 67 38 8 100 100 100 100 98 91 92 86 22 25 25 18 18 18 19 21 20 20 19 18 17 17 18 16 16 16 15 16 14 14
26 21 19 16 14 12 10 7 5 6 5 6 9 8 56 100 100 92 58 52 100 100 100 100 93 86 100 70 23 20 22 19 21 23 24 23 22 23 20 19 18 19 18 21 19 18 17 16 15
23 21 18 18 13 10 7 6 6 7 7 10 10 14 94 97 98 94 83 82 100 100 100 100 100 100 100 100 76 24 22 30 29 32 27 25 25 25 23 22 21 22 22 23 20 17 17 16 16
23 21 21 16 11 9 8 8 9 10 10 10 10 59 100 100 100 80 91 81 97 100 100 100 99 100 91 68 67 49 41 39 43 36 44 42 42 31 25 23 24 22 22 22 20 21 22 19 21
23 28 23 16 10 8 11 12 16 18 14 14 14 53 98 83 95 99 100 97 68 100 100 100 100 79 85 100 100 100 67 63 60 52 53 40 38 35 31 27 25 25 24 30 37 41 41 35 36
35 28 21 12 10 9 16 20 28 25 51 91 18 58 100 98 100 98 100 83 100 100 100 100 78 94 100 100 100 100 100 85 60 70 60 49 49 56 45 45 41 45 56 68 70 64 61 56 41
38 30 18 12 11 17 23 50 76 62 99 100 84 92 100 100 100 89 100 100 82 100 100 90 100 100 100 100 100 100 100 100 86 62 54 60 67 95 88 88 90 84 86 80 69 69 52 48 41
40 26 18 12 19 20 26 82 100 71 83 87 100 100 100 64 98 81 20 100 94 100 100 100 100 100 100 100 100 100 100 100 100 100 100 100 92 90 100 100 100 85 78 84 66 72 69 77 81
42 24 22 14 23 29 88 76 100 62 41 100 100 99 100 96 88 84 20 100 80 96 100 100 100 100 100 97 100 100 100 100 100 100 100 100 100 100 100 100 100 100 100 93 86 100 100 98 89
39 28 21 16 29 35 96 100 99 100 57 100 100 56 79 63 74 63 28 27 49 63 100 100 100 96 100 97 98 100 100 100 100 100 100 100 100 100 100 100 100 100 100 100 100 100 98 71 86
34 30 20 18 35 50 71 100 100 94 83 70 100 100 99 58 66 62 33 34 41 42 100 100 100 100 100 100 100 77 100 100 100 100 100 100 100 100 100 99 100 100 100 100 100 100 100 100 100
45 32 22 19 44 71 37 61 68 60 45 43 100 98 71 59 69 50 32 33 52 73 100 100 100 100 100 100 100 87 100 100 100 100 100 100 92 100 100 100 100 100 100 100 100 100 100 100 100
42 32 26 24 50 78 90 82 100 98 96 59 96 80 77 78 50 43 40 33 47 82 100 100 100 100 100 100 100 96 100 100 100 100 100 100 100 100 100 100 100 100 100 100 100 100 100 100 100
57 33 32 22 45 59 95 100 100 100 100 89 88 100 84 73 60 35 40 32 27 46 86 100 97 100 100 100 100 100 100 100 100 100 100 100 100 100 100 100 100 100 100 100 100 100 100 100 100
72 41 38 24 51 45 96 94 100 100 81 57 93 98 70 78 55 57 51 39 31 33 64 98 100 100 100 100 100 100 100 100 100 100 100 100 100 100 100 100 100 100 100 100 100 92 100 97 100
77 50 41 26 28 60 47 82 75 75 75 60 81 80 91 96 70 88 86 72 55 40 32 41 92 100 100 100 100 100 100 100 100 100 99 100 100 100 100 100 100 100 100 100 100 100 100 97 100
76 65 44 28 32 46 68 76 100 96 65 59 76 80 96 100 83 96 99 100 95 77 46 54 58 100 100 100 100 100 100 100 100 100 100 100 100 100 100 100 99 100 100 100 98 86 100 100 96
78 70 38 32 26 51 62 59 52 95 82 61 72 74 87 95 93 96 100 100 99 98 96 96 52 66 100 100 100 100 100 100 100 100 100 100 100 93 94 100 100 100 100 100 100 93 100 86 85
95 76 41 40 27 28 62 64 64 78 100 86 72 99 93 97 83 90 100 80 93 89 99 100 100 100 81 78 100 100 100 100 100 100 100 100 100 100 100 100 100 100 100 100 100 100 100 94 92
100 74 56 42 32 26 45 64 58 68 94 87 99 99 100 90 67 100 100 100 100 100 100 100 96 98 100 100 100 100 100 100 100 100 100 100 100 100 100 100 100 93 100 100 100 100 92 90 74
97 65 74 40 41 30 26 59 66 65 85 95 100 89 87 100 79 95 100 100 100 80 82 100 86 58 89 100 100 100 100 100 100 100 100 100 100 100 100 100 99 98 97 91 89 84 75 70 66
80 59 79 49 40 39 27 37 62 73 65 71 64 68 66 84 80 74 82 99 100 100 98 74 52 83 49 48 60 94 94 92 100 100 99 100 100 100 98 94 89 82 81 70 59 58 59 55 49
93 62 72 70 43 45 29 29 36 80 76 62 70 60 85 67 96 100 86 66 80 88 99 100 100 100 100 100 100 88 86 100 99 96 88 83 81 72 64 61 59 57 58 56 52 58 56 58 58
100 68 67 82 60 48 39 28 28 61 72 76 67 62 68 71 74 93 95 100 94 86 100 100 100 100 92 80 64 76 75 80 70 69 63 52 48 49 45 49 51 52 55 59 55 49 50 50 63
100 69 100 100 78 58 44 32 29 34 40 59 80 63 66 95 75 100 100 95 96 82 65 64 65 62 60 65 74 71 62 73 79 93 62 87 100 82 68 74 82 72 58 49 48 71 83 85 81
66 84 100 100 74 77 50 42 33 34 31 37 71 86 68 52 50 59 62 66 94 91 78 81 95 82 72 77 83 73 100 79 100 89 81 97 89 94 75 74 69 60 55 71 91 86 89 100 100
100 76 100 100 100 95 65 47 35 34 39 36 30 82 84 89 83 75 92 66 60 75 77 70 64 63 63 72 62 61 70 100 100 100 94 100 100 83 96 100 100 100 100 98 100 100 100 100 100
56 48 96 100 100 100 71 56 42 35 32 44 37 46 64 71 76 98 94 77 96 76 76 72 71 67 60 67 81 92 98 86 64 69 88 82 71 65 75 75 86 100 100 100 100 100 98 98 100
77 62 61 100 99 100 73 68 51 40 34 38 44 37 33 51 69 68 77 90 70 83 93 100 81 66 64 98 100 98 74 87 75 86 80 62 68 68 61 70 88 100 100 100 98 92 89 95 99

GFSSGP_250_rhum_057.txt.gz
RH
76 70 47 40 31 24 19 17 14 11 10 9 7 6 6 6 6 6 5 7 100 100 100 100 91 54 98 100 100 100 38 14 13 17 17 16 17 16 14 15 14 13 13 12 11 12 13 13 13
59 50 42 33 23 18 17 14 13 10 7 7 6 5 6 5 7 8 6 9 65 100 100 100 100 96 100 100 83 87 95 77 16 15 18 20 19 20 20 20 18 16 15 15 14 14 15 16 12
48 41 34 27 23 16 14 13 10 7 6 6 6 7 8 17 64 57 14 18 87 100 100 99 100 100 100 100 100 100 100 100 32 16 18 20 21 20 22 21 22 21 19 18 18 18 17 17 16
38 34 28 20 19 15 16 10 7 7 8 8 7 9 26 100 98 73 55 46 100 100 100 94 100 94 100 78 100 96 100 100 98 51 18 18 19 22 22 24 24 24 22 25 21 21 20 19 21
31 24 25 21 24 19 11 8 10 13 14 12 12 16 58 93 73 58 86 100 100 100 100 98 78 94 99 100 93 79 97 98 87 97 75 24 27 29 26 24 24 25 26 26 25 25 24 23 27
50 34 23 26 23 13 9 13 16 40 30 10 13 46 100 100 74 99 99 100 100 100 100 90 73 100 100 95 100 93 100 100 92 81 87 59 31 30 29 36 35 38 43 43 47 38 31 31 26
72 29 35 30 18 10 10 15 43 40 90 14 21 75 100 100 100 100 100 97 100 100 100 100 84 100 99 97 97 100 100 99 100 100 98 98 72 65 72 62 56 56 55 48 47 43 44 49 54
41 35 37 23 14 15 13 27 78 87 100 24 100 100 100 100 100 100 88 92 100 100 100 96 78 93 100 100 100 100 100 100 100 100 100 100 100 95 87 82 68 71 79 70 70 85 67 63 72
26 37 33 20 14 20 24 48 100 98 100 99 100 100 100 100 97 100 100 100 100 100 100 100 100 81 77 100 100 100 100 100 100 95 91 100 100 99 100 94 84 78 87 98 100 95 81 79 76
41 43 23 23 15 21 60 42 100 100 100 100 100 100 100 88 100 100 98 96 91 100 100 100 100 100 100 98 100 100 97 100 100 71 100 100 100 100 100 100 100 96 88 91 88 94 89 82 68
44 42 24 22 17 22 48 51 64 73 99 90 77 77 81 60 82 90 95 82 70 72 100 100 100 100 100 97 100 100 98 92 77 80 99 100 100 100 100 100 100 92 97 92 96 90 72 79 76
55 34 25 24 19 28 37 80 92 100 100 100 83 68 96 93 65 57 71 87 69 58 66 100 100 100 100 100 100 99 100 90 86 94 99 100 100 100 100 100 100 100 99 95 78 93 100 99 100
52 32 29 32 20 40 55 91 100 100 100 100 89 74 86 81 75 74 62 62 66 61 83 100 100 100 100 100 100 81 100 100 100 100 100 100 100 100 93 100 100 100 98 100 99 100 100 100 100
52 37 35 38 23 42 53 82 100 100 100 100 100 75 67 68 55 50 50 50 49 24 46 100 100 100 100 100 98 95 100 100 92 100 100 100 100 100 100 100 99 100 100 100 99 100 96 100 100
55 51 39 41 26 44 56 83 99 100 95 98 100 91 92 61 60 48 61 45 39 38 90 97 100 100 100 100 100 100 100 100 81 100 99 90 100 100 100 100 100 100 100 100 100 100 100 100 100
81 68 50 39 31 26 45 53 98 93 94 89 81 88 100 71 60 68 67 61 37 34 78 100 100 100 100 100 98 100 100 100 100 100 100 100 100 100 100 94 100 100 100 100 100 100 100 100 100
100 100 73 47 39 29 39 49 57 55 88 73 76 74 70 93 80 80 77 67 65 38 45 72 90 98 100 90 90 100 100 100 100 100 100 98 100 100 100 100 100 100 100 100 100 100 100 97 100
69 100 97 58 38 40 31 65 45 46 49 100 73 53 51 100 90 99 97 77 60 57 45 71 100 100 100 100 100 100 100 100 100 100 100 100 89 80 100 100 100 100 100 100 92 99 100 100 100
40 100 84 58 45 41 36 33 58 100 89 87 100 100 70 56 81 80 87 91 63 47 45 44 50 100 100 100 100 100 100 100 100 100 100 100 100 100 100 100 100 100 100 96 98 89 89 79 100
44 100 82 51 58 42 42 28 28 56 78 87 92 100 89 63 74 86 79 100 100 77 74 57 47 70 96 86 97 100 100 100 100 100 100 100 100 100 98 87 89 89 92 96 100 91 100 100 100
26 91 100 68 61 49 47 38 29 53 85 96 100 82 91 96 80 74 77 100 100 100 80 71 81 50 54 47 49 74 100 100 100 100 100 100 92 92 95 90 89 100 100 100 100 100 100 95 98
29 100 100 88 60 66 54 48 27 40 53 99 100 94 70 100 89 67 70 100 100 99 92 79 100 100 100 100 100 100 100 100 100 100 100 100 100 100 100 100 100 100 100 100 100 99 99 98 90
46 26 97 91 56 73 66 53 40 29 34 60 55 59 58 64 62 91 68 100 100 100 78 94 100 100 100 78 96 100 100 100 100 100 100 100 100 100 100 100 100 100 100 98 94 85 75 70 66
67 46 30 81 61 100 62 62 46 41 29 33 64 62 67 62 56 60 76 69 100 100 100 72 64 73 65 52 48 70 89 92 99 100 100 100 100 100 100 100 100 94 82 76 70 63 57 51 44
79 71 41 29 58 100 97 53 59 50 34 29 50 80 63 58 67 64 66 96 78 79 92 100 99 100 100 98 86 96 98 100 87 80 93 94 91 85 79 76 71 66 60 78 78 66 54 55 53
100 76 44 31 56 100 100 75 76 55 40 29 30 38 59 72 67 66 65 77 73 71 100 80 91 100 100 100 100 98 78 64 58 53 53 50 54 51 55 53 66 74 99 100 78 58 47 46 54
100 77 51 73 32 70 100 100 99 51 48 36 32 35 34 59 57 71 62 73 91 85 45 49 56 62 64 59 55 52 50 48 50 54 76 79 55 65 55 93 100 100 100 99 82 71 83 79 89
100 82 62 52 32 43 80 92 100 65 51 42 36 35 33 30 37 55 60 58 62 72 56 50 49 56 64 75 65 64 68 72 89 94 81 88 99 100 81 100 100 100 100 100 100 100 100 100 100
100 95 79 38 30 44 48 55 100 96 51 54 41 37 37 42 35 27 49 60 80 84 72 71 72 59 72 79 74 90 94 100 95 76 87 94 98 98 100 100 100 98 100 100 100 95 83 85 94
100 100 87 62 35 74 63 92 100 100 67 55 54 40 37 40 38 33 29 22 53 78 100 91 56 60 100 100 100 100 100 100 98 100 99 100 100 100 100 100 100 96 96 80 62 66 69 69 68

GFSSGP_250_rhum_060.txt.gz
RH
63 54 45 42 38 39 38 32 26 23 19 16 12 10 10 8 8 7 7 9 8 9 29 100 100 100 90 67 100 100 97 100 100 89 70 30 21 21 24 20 19 16 14 15 14 13 13 12 11
67 54 37 31 30 32 32 26 21 15 13 11 9 8 6 6 6 12 7 7 7 9 60 100 100 98 100 100 97 99 98 100 100 100 100 68 24 15 16 19 19 20 20 18 17 16 17 16 15
65 40 27 27 31 28 22 18 15 13 10 8 6 5 6 8 8 8 8 13 8 47 82 100 89 100 100 100 100 100 100 100 100 100 99 100 92 48 22 16 18 19 21 21 20 19 22 23 19
40 29 25 33 29 22 18 17 14 10 8 7 8 7 11 9 11 19 10 10 14 64 100 100 98 100 91 95 96 100 100 100 89 96 100 100 100 98 73 34 16 16 20 19 20 22 23 26 22
30 31 31 36 25 21 17 15 10 9 9 10 12 14 15 14 21 30 56 21 21 86 100 100 96 100 100 100 100 100 86 98 74 100 100 92 91 91 97 89 33 18 19 20 20 23 25 26 24
26 26 26 30 27 22 16 11 10 10 21 21 14 15 29 34 42 97 100 71 40 94 100 95 100 100 100 89 93 100 93 97 100 100 98 100 87 77 91 92 69 26 22 21 21 22 27 30 26
36 27 27 27 30 23 16 12 14 21 43 18 17 62 100 100 100 100 100 94 79 100 100 100 100 100 100 73 100 100 100 100 88 96 78 91 93 75 81 89 91 77 49 44 44 49 42 48 56
31 28 28 36 33 23 14 24 77 59 57 24 50 100 100 100 100 100 100 100 100 100 100 100 100 100 100 97 100 100 100 100 85 95 100 100 99 72 75 100 100 100 88 77 64 78 65 80 86
26 21 28 40 29 18 14 53 100 89 92 49 93 100 100 100 100 100 100 91 100 100 100 100 100 100 100 100 99 100 100 100 100 100 100 100 94 68 80 91 100 100 100 96 84 91 77 94 90
21 23 29 36 24 15 23 61 100 99 95 90 56 100 100 100 99 100 100 97 80 100 100 100 100 100 100 100 100 100 100 100 100 99 91 74 68 53 65 100 98 80 75 81 81 82 82 78 88
22 25 34 34 26 16 27 52 100 99 87 96 100 100 100 100 100 100 100 100 56 85 99 100 98 98 100 98 100 100 100 100 92 94 100 99 81 65 78 100 84 57 67 80 84 75 77 66 76
29 39 39 30 25 19 38 73 100 84 70 60 74 69 75 89 96 99 100 99 79 57 99 100 99 100 74 100 100 98 94 73 100 92 100 100 98 99 76 59 60 54 54 80 89 79 96 100 88
31 34 43 31 30 24 57 60 77 62 77 47 59 52 56 59 70 71 61 70 65 63 87 100 100 91 99 100 100 100 100 100 100 100 100 100 100 100 100 80 68 55 60 71 82 98 89 78 90
22 37 40 35 35 32 31 80 78 64 53 50 72 66 60 41 51 55 56 65 50 43 50 70 100 99 75 100 100 98 99 98 100 100 100 100 93 100 99 88 58 54 75 92 89 97 86 98 100
21 53 53 50 42 40 30 45 76 79 64 65 60 66 61 36 32 41 50 65 51 65 50 44 69 100 100 93 86 81 80 100 100 100 100 100 100 100 94 75 68 74 59 95 100 96 100 100 100
20 43 64 67 41 40 34 29 80 99 98 85 64 54 47 47 44 72 81 70 66 51 50 57 51 42 100 100 100 100 94 100 100 100 100 100 100 100 96 100 89 100 100 100 100 96 100 100 100
28 23 25 32 35 43 41 31 31 46 78 78 64 58 63 41 46 54 81 72 89 83 55 44 39 33 89 100 100 100 100 100 100 100 100 100 100 99 100 100 85 69 82 99 100 100 100 92 91
32 25 26 56 67 48 42 45 30 40 58 75 67 100 80 48 58 54 79 79 71 71 52 46 55 67 100 100 100 100 100 100 100 100 100 100 96 100 100 100 95 99 100 100 100 94 100 100 100
37 38 28 41 96 68 38 49 32 29 45 71 96 100 82 69 66 55 55 79 76 66 54 43 54 88 100 100 100 100 100 100 100 100 100 100 98 100 100 100 100 100 100 98 91 92 96 99 89
71 49 48 27 80 38 37 48 46 32 46 53 63 59 63 94 90 65 57 65 87 87 72 54 40 48 79 100 100 100 100 100 100 100 100 100 100 100 100 100 94 80 72 80 77 79 72 78 91
96 53 56 38 25 46 33 42 43 46 33 61 76 92 83 100 79 86 61 55 78 100 87 100 78 58 44 54 81 100 100 100 100 100 100 100 100 100 98 100 100 95 76 72 71 84 99 100 100
100 86 66 71 57 34 34 38 61 48 48 31 91 96 100 100 96 81 69 60 70 99 100 98 91 86 91 82 84 60 72 98 96 100 100 100 100 100 100 100 100 98 100 100 100 100 100 100 100
100 100 74 52 64 58 37 36 89 39 46 38 32 54 82 93 91 70 61 87 75 91 100 81 95 89 100 100 100 100 100 100 100 100 100 100 100 100 100 100 100 100 100 100 100 100 100 98 98
100 100 88 65 57 70 32 30 59 86 45 47 37 34 39 52 56 51 55 54 70 84 100 100 99 86 100 100 100 100 100 97 95 100 100 100 100 100 100 100 100 100 100 100 100 100 99 98 87
94 83 90 100 76 80 39 35 31 100 60 48 45 36 34 36 46 45 47 49 63 83 89 100 100 81 62 67 72 70 67 54 79 97 97 100 100 100 100 100 100 95 93 93 84 78 64 57 55
81 95 96 100 100 72 54 44 28 39 87 56 48 42 37 38 34 33 49 54 58 73 97 85 99 99 100 80 87 100 100 100 100 97 86 74 68 66 66 64 63 61 98 98 100 82 57 46 40
97 92 100 98 100 81 65 44 27 28 69 96 54 46 42 38 34 34 31 53 65 63 68 89 72 73 89 100 98 91 77 77 75 71 56 55 57 55 53 53 53 80 100 100 99 62 56 77 79
57 66 100 99 100 100 78 58 37 30 33 68 90 43 44 45 38 38 42 44 52 50 58 68 81 74 58 57 66 65 65 74 85 87 81 74 65 56 61 71 88 100 100 100 100 100 100 100 100
89 63 100 100 96 100 100 68 42 42 25 41 100 58 38 47 41 39 40 41 40 39 49 55 60 60 66 60 57 65 84 98 100 100 58 100 97 98 96 80 81 67 100 100 100 100 100 100 100
88 66 71 79 87 100 100 74 54 45 33 35 86 100 60 38 41 39 36 39 36 39 39 43 50 57 63 98 100 100 100 96 85 100 68 100 100 100 100 99 74 96 97 100 100 100 100 100 100

GFSSGP_250_rhum_063.txt.gz
RH
61 73 62 62 42 33 36 41 29 19 15 14 15 14 15 13 11 11 10 11 11 10 11 21 12 16 100 100 100 100 92 100 100 100 100 100 82 68 51 38 29 27 40 43 34 28 24 24 17
74 76 69 58 53 50 48 31 20 17 14 14 15 12 11 9 8 8 8 9 9 13 18 12 12 50 100 85 97 90 100 100 100 100 100 100 100 100 92 63 37 27 31 38 39 33 30 26 20
77 86 75 66 51 39 26 20 19 17 14 14 12 9 8 7 7 6 6 6 7 7 10 10 44 100 100 100 100 100 94 100 100 100 100 100 100 100 98 100 80 52 28 27 27 26 26 25 20
86 77 63 28 25 22 20 21 17 14 13 12 10 7 6 6 5 5 6 6 6 11 8 9 100 100 100 100 100 75 100 100 98 93 100 100 88 80 85 95 97 99 74 47 28 20 18 18 18
59 47 31 23 25 26 26 20 15 13 14 12 11 9 11 9 11 8 7 8 10 15 8 36 100 100 100 90 100 99 100 100 94 100 96 100 100 92 90 77 85 80 89 94 60 35 23 17 16
36 32 28 29 28 25 24 17 14 15 13 20 20 17 20 15 19 16 12 11 12 12 27 100 100 100 100 100 100 100 100 100 97 93 88 100 100 87 96 89 84 73 73 77 78 79 62 41 22
33 20 21 30 24 20 23 16 15 14 14 42 60 51 22 16 96 99 64 26 29 72 89 100 100 100 100 100 100 100 100 88 80 99 100 100 100 82 80 75 74 75 75 87 82 74 60 57 43
18 22 19 18 20 25 21 17 14 16 35 67 80 56 27 37 100 100 63 37 99 100 100 100 100 100 100 100 100 100 100 100 94 100 100 100 100 73 57 80 68 62 76 73 63 60 58 46 60
27 22 21 22 26 26 21 16 15 36 77 95 87 61 97 100 100 100 88 75 100 100 100 100 100 100 100 100 100 100 100 100 100 100 100 96 86 60 60 66 58 53 45 41 42 41 43 39 36
31 25 19 25 29 25 21 16 29 98 99 97 82 77 100 100 100 100 89 87 100 100 100 100 100 100 100 100 100 100 100 100 100 100 100 85 61 97 59 66 72 64 44 44 44 42 35 31 40
28 24 19 24 31 26 22 22 44 80 80 81 84 82 100 100 100 100 97 80 100 100 100 100 99 100 100 100 100 100 100 100 100 100 100 87 98 68 87 88 63 52 46 48 40 40 36 40 51
34 18 16 22 36 28 30 28 48 88 94 97 80 75 91 100 100 100 100 60 100 100 96 100 100 100 100 100 100 100 100 100 100 100 100 100 81 100 100 98 76 56 56 46 42 36 39 53 52
31 19 17 34 45 38 34 22 39 75 100 100 75 49 94 89 100 100 98 100 97 100 100 100 100 100 100 100 100 96 100 100 99 100 100 100 100 100 100 100 98 76 81 64 48 44 60 65 57
25 21 19 22 36 64 30 30 22 39 76 81 69 61 64 76 74 91 93 92 93 100 100 100 100 100 100 100 100 100 89 100 99 100 100 100 79 88 100 100 100 97 100 74 59 57 62 68 63
39 22 23 20 20 79 33 36 26 30 46 80 64 62 45 39 42 38 49 73 69 79 84 93 96 97 100 100 100 100 100 100 100 100 100 92 88 99 100 100 100 96 88 69 68 68 84 78 84
42 27 27 24 20 47 37 45 36 28 31 74 94 90 76 64 50 44 34 35 55 63 56 64 76 81 94 94 84 79 75 92 90 98 100 100 100 99 96 95 82 89 100 90 84 84 79 98 92
76 56 57 34 27 30 30 31 42 29 30 30 51 66 77 75 54 54 36 38 43 39 50 50 56 58 69 72 79 74 72 81 98 94 94 99 100 100 100 87 93 100 100 100 100 95 93 99 80
68 90 68 41 32 22 24 31 40 34 34 29 38 67 84 80 54 47 42 43 59 49 42 40 37 40 42 55 76 74 84 80 76 62 79 94 100 100 100 100 100 100 100 100 96 97 100 100 100
70 89 88 56 48 36 24 33 38 38 30 27 26 47 50 69 71 50 50 51 60 82 59 48 49 42 38 45 70 65 65 90 100 100 100 100 100 100 100 100 100 100 100 100 100 100 94 100 100
98 100 100 82 50 63 51 36 34 35 35 29 27 33 64 47 49 49 59 54 59 72 89 68 64 42 43 42 39 43 58 93 100 100 100 100 100 98 97 100 100 100 100 100 100 100 100 94 75
100 83 100 95 69 61 44 54 30 29 31 33 32 29 41 79 74 64 69 68 64 58 83 96 95 72 48 43 50 88 100 100 100 100 100 100 100 100 100 100 100 100 100 100 100 96 83 76 77
66 53 100 80 92 72 44 63 43 30 36 32 35 33 31 39 100 91 86 76 80 68 70 67 98 100 88 56 62 77 98 100 100 100 100 100 100 100 100 100 100 100 92 95 99 95 98 94 99
100 68 100 97 77 100 60 65 62 31 31 35 30 36 34 32 36 54 62 56 50 63 70 86 67 96 97 86 64 76 100 100 93 100 100 100 100 100 99 100 100 100 100 100 100 100 100 100 100
100 100 100 100 84 75 72 85 61 41 27 39 30 33 33 34 32 32 55 56 48 52 58 84 89 70 58 74 100 100 100 100 100 100 100 100 100 100 92 100 100 100 100 100 100 100 100 97 92
100 100 100 100 54 80 80 83 72 54 30 31 30 26 39 36 35 32 31 57 57 51 58 68 96 76 61 61 74 99 100 100 100 100 100 88 75 96 100 100 100 100 99 100 98 89 91 78 68
100 73 56 63 46 71 94 90 78 58 48 31 37 28 30 36 38 39 36 33 53 64 54 93 96 100 100 98 61 64 75 84 74 80 96 90 100 100 88 82 79 80 86 86 89 75 83 99 97
80 54 70 60 50 60 90 95 79 74 63 37 36 35 25 36 39 37 34 31 32 47 56 56 88 96 98 97 99 100 100 100 100 100 93 90 86 77 70 67 68 73 79 85 93 90 97 83 99
40 56 70 91 91 87 75 88 95 87 87 54 43 40 38 28 61 37 38 34 29 33 49 59 60 82 97 74 68 73 81 81 81 86 85 85 85 77 56 48 54 72 67 73 57 100 100 79 72
58 53 92 100 99 75 91 99 98 74 89 68 59 38 40 32 60 69 41 40 36 28 29 51 68 68 66 75 65 66 92 100 100 99 100 100 89 77 91 62 73 78 59 99 73 70 48 69 76
100 100 100 94 100 93 100 99 91 95 85 50 65 48 44 35 42 91 50 41 34 30 28 30 42 70 66 78 66 97 96 73 85 92 86 100 100 63 100 100 100 100 96 90 92 76 70 65 100

GFSSGP_250_rhum_066.txt.gz
RH
43 36 38 43 47 64 58 44 38 30 28 29 23 17 13 13 12 12 10 10 12 13 15 15 19 17 15 17 18 18 16 30 42 72 75 78 84 63 73 92 70 70 72 50 47 39 24 20 22
49 44 55 80 66 58 64 57 53 33 20 17 17 13 12 12 11 9 9 9 8 10 17 14 18 15 15 16 16 24 64 99 100 100 100 100 100 100 86 92 94 60 72 71 61 59 44 29 26
53 57 57 51 56 60 47 30 27 22 18 16 14 13 12 10 9 8 8 7 7 7 52 44 39 25 19 25 18 30 97 100 100 100 100 100 100 100 100 100 98 94 73 75 62 66 52 36 37
71 75 60 67 54 46 29 22 21 16 14 15 15 12 11 8 7 7 7 6 6 6 6 12 17 18 20 25 40 64 91 100 100 100 93 100 100 100 100 100 100 100 88 87 76 79 65 56 49
100 91 80 61 51 20 17 15 14 14 16 14 12 11 9 10 12 9 8 7 8 7 19 16 10 10 17 24 87 100 100 85 100 100 96 100 100 100 100 98 93 82 80 70 74 82 70 65 72
100 100 80 60 23 19 18 17 17 17 18 14 11 11 15 24 23 15 12 9 10 13 12 21 15 16 21 43 94 96 100 98 100 100 100 100 100 100 100 97 84 82 75 76 73 61 61 64 60
81 68 50 25 23 20 18 21 20 19 15 11 12 25 52 62 37 22 14 14 12 20 47 82 44 16 43 100 100 96 71 74 100 100 100 100 100 100 99 87 80 60 53 51 53 61 71 51 59
56 58 27 29 26 21 21 24 21 18 13 11 20 47 66 71 100 69 37 25 61 55 65 80 100 89 100 100 100 100 100 99 100 100 76 94 100 100 100 100 93 63 49 53 47 44 40 45 42
54 36 32 31 23 20 22 22 24 16 13 16 48 55 69 61 100 98 67 59 76 100 100 92 93 100 100 100 100 100 100 100 100 88 94 100 100 96 100 100 94 64 41 30 42 43 45 41 35
31 40 40 33 20 17 29 28 24 15 16 22 55 71 76 71 100 100 98 86 100 100 100 100 100 100 100 100 100 100 100 100 92 100 100 100 100 100 100 100 85 48 33 37 56 43 45 43 39
49 44 43 31 19 22 33 27 23 17 16 27 63 88 77 98 100 100 100 100 100 100 100 100 100 100 100 100 100 100 100 100 95 100 100 100 100 100 100 90 52 43 32 57 51 56 50 35 38
56 46 32 21 18 18 22 34 26 22 20 22 84 100 90 77 100 100 100 100 100 100 100 100 100 100 100 100 100 100 100 97 96 100 82 100 100 97 77 60 81 85 49 44 36 50 50 47 44
54 34 30 20 19 21 32 51 30 27 21 20 35 100 98 99 100 100 100 99 100 100 100 100 100 100 100 100 100 100 100 99 100 100 100 100 100 92 92 80 97 100 99 87 70 79 79 65 56
50 48 29 21 22 24 26 44 31 29 27 20 20 58 100 100 100 100 100 100 100 100 100 100 100 100 100 100 100 100 100 100 100 100 100 100 100 100 100 100 100 100 100 100 100 100 100 100 83
65 54 33 29 35 30 24 46 33 27 28 25 21 20 55 89 82 87 94 100 100 98 100 100 100 100 100 100 100 100 100 100 100 100 100 100 100 100 100 98 61 86 100 100 100 100 100 100 83
84 59 39 48 44 32 32 29 26 27 27 28 24 21 22 43 65 68 66 88 100 100 100 98 100 100 100 100 100 100 100 100 98 100 100 100 100 100 100 88 100 100 100 100 100 100 100 100 100
85 75 43 66 51 41 45 39 32 24 30 28 26 23 23 29 39 51 51 52 70 86 97 100 96 96 100 100 100 100 100 100 100 100 100 98 100 100 100 100 100 100 89 96 100 100 95 100 100
99 94 54 57 72 52 42 55 37 26 25 28 31 29 22 27 47 52 67 64 38 42 69 89 92 98 94 100 97 100 100 100 100 100 100 100 100 97 94 100 100 100 100 98 91 94 100 100 100
100 100 90 48 94 79 48 51 46 28 28 28 36 32 25 25 47 50 50 53 41 30 31 61 74 80 86 90 100 92 80 86 86 100 92 84 89 91 100 98 100 100 100 100 100 92 100 91 99
100 100 96 68 100 100 83 54 59 39 32 30 31 37 30 23 27 53 54 60 53 43 45 48 48 58 72 74 83 72 73 70 61 74 76 86 87 98 96 100 100 100 100 100 100 95 83 89 100
100 100 82 60 67 100 100 84 67 62 50 32 30 29 30 27 24 26 42 67 65 79 68 72 73 49 43 52 54 58 54 57 50 54 79 86 94 96 100 100 100 100 89 100 91 81 99 85 82
100 93 100 63 71 57 100 100 56 59 70 45 32 31 28 28 25 25 25 41 48 55 70 72 76 78 56 48 46 43 46 46 46 54 61 74 75 81 100 100 100 100 100 97 100 100 97 100 100
100 100 100 97 64 100 100 83 47 82 64 56 40 35 31 27 26 24 26 32 47 44 49 59 82 80 92 74 53 51 42 32 38 50 51 72 95 98 100 100 100 98 100 100 100 100 100 100 100
99 100 100 91 78 100 100 60 68 100 75 59 51 42 35 34 28 25 26 27 33 42 45 48 60 95 97 100 92 70 63 58 79 66 84 96 100 100 100 100 100 100 100 100 100 100 100 100 100
80 100 90 89 99 100 100 57 97 100 82 68 58 53 42 35 35 30 29 26 27 34 43 45 48 82 97 92 86 100 95 88 84 86 97 80 98 100 100 100 99 100 100 100 100 100 100 100 95
100 94 72 91 100 90 59 64 100 97 96 74 70 69 46 40 37 43 28 31 29 29 34 49 51 55 89 80 62 58 78 98 100 100 100 100 98 96 100 95 87 87 95 87 85 95 85 77 70
100 100 98 73 64 64 66 77 100 95 100 89 89 83 69 53 40 37 35 31 31 32 31 37 51 62 71 100 87 74 79 77 74 75 77 76 86 95 95 100 99 95 84 76 78 76 60 58 51
68 74 62 67 81 95 79 86 100 100 100 100 98 90 69 53 47 35 32 38 35 31 32 32 39 51 64 91 96 100 88 93 100 100 100 100 100 100 100 98 100 95 75 70 62 62 54 77 76
100 97 90 84 90 58 44 90 100 100 99 100 100 96 79 68 60 46 35 34 41 31 33 35 34 38 50 59 84 95 86 79 86 96 92 98 99 98 98 81 82 80 55 39 36 40 38 36 50
90 100 85 58 62 54 39 78 100 100 100 100 100 100 85 75 64 54 42 35 35 33 29 34 35 35 40 57 68 93 84 80 86 93 97 83 76 100 87 54 43 67 68 56 49 52 60 85 100

GFSSGP_250_rhum_069.txt.gz
RH
27 34 40 46 35 40 45 57 60 44 45 41 28 21 18 18 16 13 11 10 11 11 10 10 11 12 12 13 17 22 28 27 25 28 28 24 41 81 91 79 78 97 100 81 73 94 70 39 33
23 31 50 52 49 53 58 57 54 48 38 34 23 15 13 12 11 11 10 9 8 9 9 10 9 11 12 12 17 22 28 23 22 25 29 28 31 81 100 100 99 86 87 94 92 90 92 86 72
18 26 58 76 81 83 72 62 60 42 18 15 13 12 11 11 11 10 9 8 8 12 18 16 18 61 27 13 16 19 26 20 21 24 28 36 44 100 100 100 100 100 92 89 85 81 82 78 71
19 20 54 99 86 96 78 64 32 18 16 13 11 11 10 10 10 11 9 7 7 12 73 35 23 12 26 50 23 18 21 19 22 43 96 99 100 100 100 100 100 100 100 100 88 68 56 62 62
17 24 63 99 98 98 94 45 23 17 14 12 11 11 12 12 13 14 13 12 16 13 53 53 38 19 13 50 58 49 18 19 29 100 100 100 100 100 100 100 99 100 100 87 72 68 64 70 62
15 17 40 75 80 94 69 29 23 18 13 11 12 14 14 22 19 22 24 18 37 29 50 40 54 34 29 32 54 53 32 34 48 100 100 100 94 98 100 99 100 100 99 63 53 52 58 59 51
16 18 30 60 71 62 33 27 16 15 12 15 14 15 28 33 30 42 42 34 41 63 88 95 96 78 60 30 55 33 40 41 70 100 100 100 100 100 100 100 96 86 74 56 56 51 44 46 55
19 39 48 78 36 35 36 26 16 19 14 18 14 19 39 48 57 68 68 72 41 83 100 90 99 67 71 88 84 34 39 60 100 100 100 100 100 100 100 100 100 99 66 48 42 37 42 44 46
46 44 56 36 40 32 26 19 20 28 16 16 14 19 39 56 85 76 79 98 91 96 100 100 95 100 100 100 100 100 86 96 100 100 100 84 100 100 100 100 100 99 73 71 50 45 35 37 38
56 39 42 46 39 26 18 17 29 31 17 16 14 16 40 66 94 96 85 100 100 100 100 100 90 100 100 100 100 98 100 100 100 93 100 82 100 100 100 100 99 100 96 75 48 43 37 28 28
39 39 59 42 33 20 18 20 27 27 23 16 16 19 41 45 100 100 92 100 100 100 100 100 100 100 100 100 100 100 100 100 100 100 100 100 99 100 100 100 100 100 100 78 44 36 32 29 33
40 54 55 34 27 19 21 22 26 26 25 17 17 20 26 36 90 100 100 100 100 100 100 100 100 100 100 100 100 100 100 100 100 100 98 100 83 84 100 100 100 100 98 78 51 31 28 34 41
48 64 52 41 24 22 24 26 26 25 25 20 19 22 28 44 55 100 100 95 100 100 100 100 100 100 100 100 100 100 98 100 98 89 100 100 100 94 97 97 75 70 80 68 46 33 36 43 45
62 83 48 42 25 32 28 29 27 26 24 22 20 21 22 47 49 94 100 100 89 100 100 100 100 100 100 100 100 100 100 100 100 96 99 74 94 92 100 88 98 86 61 54 87 60 82 88 99
81 74 64 38 38 37 35 29 31 26 24 23 21 22 23 22 59 64 100 100 100 100 100 100 100 100 97 100 100 100 100 100 100 100 100 86 86 83 68 88 77 56 65 60 55 67 98 100 100
92 92 81 50 52 48 46 50 38 33 28 26 23 23 24 22 26 62 72 100 100 100 100 100 100 100 100 100 92 100 100 100 100 100 97 100 100 100 95 76 72 72 76 69 74 89 100 100 100
96 98 88 55 52 55 54 46 49 45 35 29 25 23 25 23 21 30 58 64 98 100 100 100 100 100 100 100 100 100 100 100 100 100 100 100 100 100 100 100 100 100 100 100 100 100 99 100 100
81 100 96 72 61 76 77 50 56 52 40 36 29 26 26 25 26 25 34 52 53 72 92 100 100 100 100 100 100 100 100 100 100 99 94 100 100 100 100 95 100 100 100 98 100 100 100 100 100
100 100 91 96 64 87 100 86 66 58 42 60 42 31 28 27 25 25 35 35 43 45 73 97 100 99 100 100 100 100 100 100 100 100 100 100 97 93 85 66 73 93 100 95 100 100 100 100 100
100 100 99 80 87 88 99 100 95 80 39 67 54 36 31 33 27 26 24 38 38 39 41 66 84 95 98 94 99 100 93 100 100 100 100 100 98 93 98 100 100 100 100 100 97 99 100 100 100
100 100 79 91 76 92 98 97 100 75 44 72 64 42 36 33 29 28 28 24 41 44 35 36 38 46 55 70 80 85 92 93 84 82 90 99 100 90 82 76 83 100 100 100 100 100 100 100 93
100 100 47 87 100 96 74 55 100 90 44 53 68 51 44 38 32 36 31 27 24 33 43 36 32 36 50 42 63 74 78 86 93 90 90 87 87 84 76 74 73 76 96 97 100 100 100 100 100
90 99 52 96 100 98 89 58 98 100 60 55 74 63 50 46 38 36 42 29 28 25 32 38 42 49 52 71 94 86 76 78 86 80 84 82 77 76 71 72 74 79 94 99 100 100 100 100 94
51 62 62 91 100 100 100 78 100 92 84 71 66 67 57 63 44 36 31 33 31 30 26 36 38 45 58 63 97 96 88 80 69 70 66 69 69 70 73 79 91 92 93 91 97 100 100 100 100
65 64 88 71 85 100 94 51 100 100 100 66 65 75 69 78 63 48 35 31 29 30 29 27 37 44 48 66 83 98 92 89 88 98 98 78 84 100 99 100 100 100 100 100 100 100 100 100 100
94 86 74 61 56 82 80 68 99 100 81 60 73 96 80 85 71 60 49 37 33 35 32 28 28 39 46 64 95 100 100 96 90 95 100 99 98 94 97 100 100 100 100 100 100 100 100 100 97
100 100 100 93 74 83 57 78 89 100 79 88 81 99 96 91 66 54 54 48 37 32 40 33 31 28 38 45 67 100 100 89 100 100 100 100 100 100 100 99 99 100 99 96 94 92 76 61 60
100 100 100 100 100 92 88 100 100 100 100 71 93 91 100 100 82 77 64 52 44 39 32 44 36 30 28 38 46 72 99 90 67 65 65 72 94 84 87 90 99 95 97 87 76 71 70 68 54
100 100 100 98 98 88 71 74 100 100 100 60 100 89 100 100 99 89 87 69 58 43 41 36 42 36 31 28 39 54 89 100 100 96 93 75 82 88 87 85 85 82 73 73 74 74 61 47 37
83 90 86 81 100 88 80 95 100 100 100 66 78 100 100 100 87 100 98 100 84 67 42 44 46 40 36 32 30 40 57 80 94 98 98 84 78 70 59 55 53 49 53 58 57 58 62 42 43

GFSSGP_250_rhum_072.txt.gz
RH
20 16 15 13 13 21 23 23 26 35 36 40 39 38 36 24 16 14 13 12 10 10 10 11 12 12 16 15 14 14 14 17 19 21 29 32 34 28 24 35 54 62 66 98 77 70 63 58 58
20 18 16 14 13 20 23 35 42 51 55 51 51 35 21 15 13 11 10 10 9 7 6 7 8 11 29 22 21 14 14 15 16 16 31 39 39 32 28 33 58 88 100 100 86 85 86 91 88
25 21 19 15 16 28 30 54 64 61 64 72 36 24 18 13 12 10 10 9 7 7 29 34 29 33 57 100 89 48 20 13 13 18 26 40 40 34 29 33 49 78 100 100 98 100 96 87 68
35 26 22 14 17 24 49 87 81 99 91 54 43 22 15 12 10 9 9 8 8 7 12 51 90 100 98 100 99 79 45 16 15 17 28 35 32 28 26 55 50 99 100 100 95 82 80 67 57
35 27 18 15 16 18 40 77 96 75 55 46 23 18 15 12 10 10 10 15 12 11 33 54 27 100 100 100 62 58 100 64 24 19 30 32 25 29 73 94 100 100 100 100 97 88 65 66 62
34 31 18 16 17 18 22 60 66 58 36 29 18 16 13 12 12 13 19 23 26 18 39 70 48 72 63 100 76 93 100 48 30 24 29 28 74 68 100 100 100 100 97 99 93 67 59 50 48
36 31 17 15 27 31 48 45 36 34 32 19 15 14 14 13 16 23 35 59 54 54 68 88 99 96 95 97 100 98 95 88 47 25 46 84 100 100 100 100 100 100 100 100 97 77 61 45 71
41 30 16 31 60 53 43 37 28 23 17 14 14 16 15 15 27 32 60 88 100 99 100 100 98 99 100 100 100 100 100 87 80 38 66 100 100 100 89 93 100 100 100 100 92 73 59 50 52
41 22 23 53 54 43 38 33 21 16 15 14 18 16 14 16 29 47 66 100 100 99 100 100 82 98 100 96 100 100 100 94 95 46 64 100 100 100 100 100 100 100 100 100 98 76 54 42 35
29 23 60 46 47 44 32 20 17 15 17 19 20 17 15 18 33 65 78 100 100 92 96 96 86 98 100 100 100 91 73 68 52 55 100 100 100 100 100 100 100 100 100 100 73 63 40 38 36
28 28 47 43 48 37 26 19 16 17 21 23 22 18 16 16 37 77 91 100 100 100 100 100 78 91 100 99 100 100 100 100 100 100 100 100 100 100 100 100 100 100 100 90 98 88 54 40 39
32 52 41 47 52 40 26 21 19 19 22 22 21 19 18 16 36 65 98 100 100 100 100 100 100 100 100 100 100 100 100 100 100 100 100 100 100 97 100 100 100 100 99 100 100 91 70 48 42
53 47 43 51 51 38 23 22 23 23 24 24 20 20 20 17 30 58 100 100 100 100 100 100 100 100 100 73 99 99 100 100 100 100 100 100 100 100 100 100 98 90 100 97 100 82 62 37 29
54 53 51 60 53 33 28 27 24 25 25 27 25 20 23 21 22 43 100 100 100 100 100 100 100 100 100 100 100 95 100 100 100 100 100 100 100 94 66 95 95 71 83 78 99 78 44 36 33
52 60 60 76 50 42 32 33 36 30 28 30 27 21 24 25 20 37 90 100 100 100 100 100 100 100 100 100 100 100 100 100 100 100 100 100 100 100 96 100 96 82 83 77 64 44 46 40 43
62 58 72 72 51 45 43 44 41 30 34 32 33 29 22 25 23 23 43 98 100 100 100 100 100 100 100 100 100 100 100 97 100 100 100 100 100 94 100 91 95 100 100 93 59 50 47 54 54
73 58 64 63 80 56 49 51 54 39 36 33 50 34 25 22 24 23 26 55 100 100 100 100 100 92 100 100 96 100 100 100 100 100 100 100 100 100 100 100 100 97 84 68 66 64 67 83 99
70 44 78 91 86 62 56 59 62 59 48 35 49 46 34 26 22 23 22 27 48 98 97 93 100 100 96 88 100 99 98 100 100 100 100 100 98 100 100 78 88 79 83 63 83 93 100 96 100
53 64 98 93 95 75 60 80 95 72 62 38 35 49 41 33 24 22 24 22 24 34 85 100 100 97 100 100 100 100 100 100 84 80 100 100 100 100 84 74 76 90 100 100 100 100 100 78 92
38 80 98 75 100 88 76 73 100 98 92 52 34 40 50 38 33 26 24 25 22 25 32 48 84 94 94 100 100 100 100 100 100 100 90 88 97 100 100 100 100 100 100 100 100 96 100 100 100
40 89 90 54 95 100 100 95 70 86 100 73 38 36 59 52 40 36 22 23 26 24 29 36 40 53 67 80 92 100 100 100 97 100 100 100 83 100 100 96 100 100 100 100 100 100 99 100 100
36 62 100 48 67 100 100 100 66 54 73 86 52 36 48 49 54 40 31 31 24 24 24 27 42 47 42 53 78 92 93 99 100 98 100 92 100 92 76 92 85 89 98 94 99 81 96 100 100
52 34 68 44 63 90 100 100 83 56 57 94 60 52 49 54 59 51 46 36 33 28 24 25 27 41 43 43 49 65 71 71 67 82 93 92 98 98 97 100 99 92 80 87 99 91 84 95 100
51 40 40 46 61 70 100 100 100 87 65 70 77 70 45 52 62 73 61 46 41 32 28 26 25 30 41 41 38 35 43 43 48 54 94 92 90 100 95 99 100 100 100 100 98 99 100 100 100
96 56 51 50 56 95 100 91 100 100 76 67 78 84 51 51 66 75 66 60 49 38 34 30 28 27 30 44 47 61 55 52 66 80 96 100 100 100 100 100 100 100 100 100 100 100 100 92 89
100 100 74 63 65 79 100 90 100 100 100 75 54 60 57 46 61 60 49 55 61 50 39 40 30 28 27 38 45 51 98 93 79 93 93 100 100 100 100 100 100 100 100 100 100 100 100 100 100
100 100 98 69 63 59 61 59 100 100 100 100 90 71 57 38 67 100 66 56 60 62 48 41 39 34 28 27 33 50 82 100 100 100 96 92 100 100 100 100 100 100 100 100 100 100 100 100 100
100 96 100 93 67 68 69 91 99 100 100 100 99 79 48 38 47 84 100 87 66 53 62 55 47 37 34 30 28 29 51 80 100 100 97 100 100 100 100 100 100 100 100 100 100 100 100 93 72
95 95 76 97 100 100 100 100 100 100 100 100 100 100 89 59 45 94 96 100 87 66 56 67 77 50 37 37 32 29 28 42 73 97 100 83 84 90 83 82 89 86 69 68 62 65 56 60 61
100 100 96 69 70 84 100 100 100 100 100 100 100 100 100 63 43 58 55 97 100 93 50 56 48 62 59 34 36 36 31 30 34 54 87 100 100 100 100 99 84 69 73 69 71 68 64 58 65

GFSSGP_250_rhum_075.txt.gz
RH
18 21 22 22 18 18 12 13 12 10 12 18 21 32 34 31 25 22 17 19 18 15 13 13 11 9 12 25 23 23 24 22 22 22 27 26 32 29 29 29 31 31 28 31 47 40 32 36 44
18 20 20 22 21 21 17 16 12 12 15 20 34 39 30 30 26 30 22 14 12 11 9 8 8 10 15 28 51 82 82 43 46 41 19 21 27 34 29 34 39 40 35 37 84 74 69 76 90
20 20 20 20 22 27 21 18 14 14 21 50 50 36 52 45 47 25 17 14 11 9 9 8 13 15 32 57 68 100 100 100 97 75 42 19 16 24 28 35 37 54 44 39 68 74 90 98 95
22 18 20 21 28 28 21 17 14 14 36 100 93 75 73 52 24 16 15 14 12 10 11 12 20 39 55 73 100 82 100 100 99 100 100 75 15 20 24 29 50 61 46 39 45 79 90 75 73
21 21 22 24 40 33 24 17 15 14 21 52 78 66 53 28 18 16 15 13 10 9 13 22 20 57 67 85 73 99 90 100 100 100 98 99 20 20 25 29 47 48 98 99 74 100 100 88 71
25 24 25 26 40 38 22 15 17 24 50 56 40 32 24 17 14 13 13 12 15 16 14 16 36 68 98 100 71 100 87 100 100 100 100 84 19 20 23 37 40 47 100 100 98 100 100 70 60
26 28 32 31 45 35 20 21 42 39 37 32 26 19 15 14 13 13 12 21 27 30 28 23 56 100 100 100 100 98 100 99 100 100 96 66 23 24 35 40 76 100 100 100 100 100 96 74 74
24 30 33 36 42 24 23 44 44 39 31 25 18 15 15 14 13 16 20 32 40 64 62 39 62 100 100 100 100 100 100 100 100 100 84 71 36 37 47 90 100 100 100 100 100 100 100 90 68
25 30 33 42 35 22 50 46 38 34 27 17 15 15 17 15 15 20 28 54 83 100 100 81 83 99 100 100 100 100 100 100 100 100 83 90 65 100 100 100 93 100 100 92 100 88 100 88 90
33 33 33 43 30 38 53 38 34 30 18 17 16 19 18 16 15 25 36 81 100 90 100 100 94 79 88 100 100 100 100 100 100 96 90 59 100 100 100 100 100 100 98 100 100 100 100 89 95
32 33 33 40 36 68 46 35 33 21 18 19 20 20 19 18 16 27 36 70 100 100 87 100 100 92 81 100 100 100 100 100 98 72 67 74 100 100 100 100 100 100 100 100 100 100 100 86 66
34 34 28 40 58 58 44 45 36 18 18 22 25 21 20 20 18 25 47 87 100 100 100 100 100 100 88 100 100 100 100 100 100 71 99 98 100 100 100 100 86 100 100 100 100 100 100 100 61
42 37 35 40 76 46 46 49 37 19 20 25 25 22 21 22 19 22 45 82 100 100 100 100 100 100 100 100 100 100 85 79 77 73 80 86 100 100 100 100 100 100 90 100 100 100 99 71 86
48 43 34 41 78 44 46 52 30 23 20 23 27 27 24 23 20 20 35 67 100 99 100 100 100 100 100 100 99 100 94 100 100 100 100 100 100 97 100 100 100 100 100 100 100 100 80 100 69
50 39 35 42 71 43 54 55 32 30 27 25 22 31 29 23 21 20 27 71 100 91 100 100 100 100 100 100 100 71 100 90 100 100 100 88 94 100 97 82 100 100 97 85 94 84 72 91 72
38 45 42 38 66 44 59 54 37 34 38 30 27 31 30 29 22 21 22 45 98 100 77 100 100 100 88 100 100 91 100 100 100 100 100 100 100 100 100 100 95 63 80 100 96 73 72 56 59
37 52 41 40 59 48 63 58 40 41 46 38 33 27 34 30 25 21 21 22 73 100 91 100 100 100 100 68 100 98 100 100 96 100 100 100 100 100 100 100 100 100 80 57 62 55 75 78 54
68 45 38 42 65 64 61 62 50 47 54 47 33 31 28 36 32 26 21 21 23 71 88 85 100 100 100 100 86 100 94 95 100 100 100 100 100 100 100 100 100 100 97 97 84 100 75 74 48
50 44 54 46 65 66 71 80 57 55 54 58 48 38 28 35 38 32 24 22 21 27 75 81 92 96 100 100 100 82 100 93 100 99 100 100 100 100 100 100 100 100 100 100 97 67 71 47 58
78 48 77 50 69 68 74 95 73 51 73 84 77 63 32 32 41 32 31 25 23 21 25 55 82 86 92 99 96 99 100 94 97 100 100 100 100 100 100 100 100 97 96 87 79 60 50 64 79
79 55 93 56 68 68 97 100 84 66 59 100 100 91 43 32 41 41 36 32 29 22 23 21 34 68 71 88 93 100 100 100 100 91 91 97 85 91 100 92 90 98 90 91 95 88 91 100 100
66 91 97 56 58 74 95 100 100 96 74 41 54 98 49 37 36 49 39 37 30 28 24 25 22 26 45 69 73 84 100 100 99 100 90 88 100 92 96 81 98 96 100 100 100 99 100 100 100
97 99 91 55 65 69 90 100 100 88 84 46 49 76 50 40 37 46 47 35 35 30 32 26 26 23 26 35 42 57 69 79 80 89 99 100 82 65 94 100 99 100 100 98 98 99 99 97 92
95 98 93 57 58 58 86 100 100 82 97 88 66 62 78 40 58 42 47 46 41 33 31 34 29 27 25 29 37 42 44 49 69 91 94 97 100 100 100 95 98 92 100 100 100 90 89 93 100
89 97 99 61 50 66 100 100 100 89 82 100 82 59 53 45 48 40 43 42 45 38 33 33 36 31 27 27 28 38 42 44 52 63 64 67 71 86 94 100 100 100 100 100 100 100 100 100 100
100 100 100 87 53 65 100 100 100 100 100 94 78 100 74 43 34 34 38 77 68 52 39 29 32 35 32 26 28 25 37 44 59 72 63 73 74 73 100 100 98 99 100 100 100 100 100 100 100
100 100 100 99 62 39 38 85 98 100 100 100 91 100 82 60 44 26 33 72 100 67 70 42 33 35 31 29 30 28 26 32 48 71 71 67 70 86 93 98 94 100 100 100 99 100 100 98 98
100 100 100 100 100 71 47 54 81 97 100 100 100 98 100 100 91 51 26 28 69 100 100 89 38 28 32 38 33 38 31 28 31 50 66 77 82 86 100 100 100 100 100 100 100 100 100 100 100
100 100 100 100 100 100 100 73 70 78 100 100 100 100 100 89 84 86 56 31 32 60 87 100 90 44 38 33 42 42 38 37 29 28 43 94 99 86 100 100 100 100 100 100 100 100 100 100 87
99 100 100 100 100 100 100 100 83 99 93 100 100 100 100 90 57 99 100 61 34 28 29 68 100 97 48 44 43 50 57 49 42 31 30 29 52 92 96 81 99 100 100 78 65 67 71 90 85

GFSSGP_250_rhum_078.txt.gz
RH
25 25 21 20 20 16 15 11 13 11 11 14 11 11 11 12 13 15 22 17 20 21 22 22 19 16 17 19 21 19 18 18 23 30 29 30 29 25 30 31 33 30 28 24 23 21 22 24 22
22 24 24 24 21 17 15 11 13 16 16 14 14 12 12 13 16 18 21 19 18 21 24 18 14 12 9 8 41 80 98 100 97 92 100 100 89 37 32 29 32 36 34 33 30 32 32 34 35
28 30 27 25 24 21 22 13 13 14 17 18 14 13 13 26 21 24 31 39 31 20 12 12 16 15 15 12 12 66 84 100 100 100 100 100 100 100 73 55 26 27 32 43 39 41 45 45 43
32 33 29 25 21 22 19 18 17 21 17 16 14 14 14 86 60 58 49 35 26 16 13 12 18 33 19 13 11 20 100 100 100 100 100 100 98 100 100 96 34 22 35 43 42 45 47 58 47
36 33 28 25 26 22 22 22 20 23 21 16 14 15 13 42 35 32 25 20 18 13 12 17 41 30 13 14 24 68 97 100 92 100 100 100 100 100 100 100 74 23 27 42 46 61 60 52 59
34 44 35 32 29 23 22 28 24 24 20 19 22 27 27 29 26 20 16 15 12 11 11 10 20 19 10 20 35 100 81 100 99 100 100 100 100 100 95 98 90 27 31 31 39 59 99 87 99
44 51 41 32 34 31 26 35 27 22 25 34 35 33 30 26 18 16 14 14 12 11 13 13 16 18 29 55 97 79 100 100 100 100 100 100 89 83 92 83 36 30 31 36 94 100 85 100 100
40 70 29 42 39 32 29 37 28 29 48 43 38 35 26 16 16 15 15 13 11 14 29 27 18 28 97 100 100 100 100 100 100 100 100 100 100 94 87 50 19 25 39 95 100 100 100 100 100
71 50 26 45 38 34 35 36 29 54 48 42 40 22 16 16 18 18 15 13 17 33 53 48 38 62 100 100 100 100 100 100 100 100 100 100 89 52 51 36 25 40 100 100 100 100 100 100 100
77 36 44 33 38 42 38 33 36 53 38 39 23 16 17 19 17 17 17 13 32 66 77 58 66 84 100 100 99 100 100 97 100 100 100 100 87 71 52 37 36 100 100 100 100 100 100 100 97
57 52 47 33 46 50 44 37 52 43 36 30 17 17 20 18 18 17 18 14 41 89 95 81 67 100 100 100 99 100 100 100 100 100 100 99 76 60 50 93 100 100 100 99 100 95 97 92 100
30 40 34 32 48 41 51 42 51 32 41 30 18 21 20 20 21 21 19 15 52 96 100 68 75 86 100 100 100 100 100 100 100 100 100 100 78 69 67 100 100 100 100 100 100 100 100 100 100
48 54 38 35 36 40 42 43 52 29 44 39 17 19 22 25 22 21 20 17 52 100 100 86 84 75 64 89 100 100 100 100 98 99 100 100 99 58 69 81 100 93 88 100 100 100 100 100 100
70 61 43 31 30 30 40 44 56 35 38 44 24 21 21 25 22 21 22 17 44 100 100 99 99 100 99 65 82 100 100 100 100 100 100 100 94 43 74 100 100 100 70 99 100 100 100 100 100
59 53 54 39 36 28 40 48 59 37 36 47 34 24 22 25 25 21 21 20 27 91 100 100 100 100 100 100 98 100 100 100 99 91 100 100 78 53 82 93 100 100 100 98 100 100 100 100 100
55 55 49 52 39 27 31 59 59 37 43 46 38 28 23 24 24 24 21 20 20 68 100 100 100 97 100 100 100 82 76 100 99 94 100 93 50 65 100 90 93 100 100 91 100 100 95 92 80
44 50 42 43 34 29 31 62 54 42 54 44 37 38 26 25 23 24 21 20 20 26 93 98 100 100 100 100 100 100 100 97 90 100 100 100 99 100 100 100 78 75 81 83 100 71 63 79 70
47 47 40 43 33 27 36 76 54 46 47 55 43 48 35 24 23 21 22 21 21 19 50 95 96 100 100 83 91 100 100 100 97 100 100 100 100 100 95 97 76 87 86 95 100 100 100 91 64
44 32 33 37 34 25 54 85 63 57 44 63 52 50 50 39 32 25 22 25 23 22 19 92 71 99 100 100 78 97 100 100 86 83 100 100 100 100 100 100 100 100 100 100 100 100 100 93 78
47 35 38 36 32 32 71 83 69 62 46 58 61 51 68 67 47 27 24 28 28 23 22 20 91 75 92 100 81 92 79 99 100 100 100 100 97 92 90 98 100 100 100 100 100 93 74 77 83
34 42 43 42 39 37 77 85 89 70 62 65 68 63 89 96 73 27 24 28 27 29 23 23 21 65 80 81 100 100 88 51 94 98 100 85 100 100 82 100 95 82 88 89 93 97 100 99 93
46 61 55 67 61 53 87 91 79 79 64 82 74 70 100 100 84 30 29 28 32 26 31 24 22 20 25 66 72 86 98 99 56 61 78 90 82 100 100 100 100 100 99 100 97 94 89 92 95
98 100 99 76 70 74 89 98 100 86 72 94 80 80 62 45 43 34 32 30 30 30 25 27 24 22 22 19 33 59 78 83 98 100 82 62 58 64 96 97 95 96 99 94 99 100 100 92 100
100 100 100 88 84 76 100 99 100 93 85 100 100 100 84 52 44 52 28 34 29 35 40 25 24 27 23 23 22 25 32 58 75 74 82 89 76 73 77 82 90 87 87 100 99 100 100 100 100
100 100 100 96 73 91 100 100 100 100 72 81 100 100 100 77 46 52 35 29 36 42 46 47 35 24 26 24 25 24 26 32 34 50 59 73 96 99 95 87 82 82 79 73 94 100 100 100 100
100 100 100 100 98 98 100 100 100 100 77 64 93 100 100 100 58 41 44 29 33 41 95 38 64 53 28 27 26 25 26 27 37 40 46 69 77 82 100 100 99 99 100 100 100 100 100 100 100
100 100 100 100 100 90 100 100 100 100 100 77 68 93 100 100 86 46 52 37 26 30 54 96 100 100 48 30 29 29 28 27 28 37 42 46 50 54 50 61 84 99 100 100 100 100 100 99 99
100 100 100 100 100 88 100 100 100 94 100 100 98 97 99 100 98 100 73 46 35 25 28 54 100 100 70 73 41 34 33 32 29 29 33 85 98 77 74 74 86 90 95 85 92 69 75 79 78
100 100 100 100 100 100 100 100 100 100 94 100 70 91 100 100 100 100 100 100 80 44 35 27 53 85 100 100 90 40 42 35 26 29 28 29 45 74 100 94 81 100 99 76 79 95 89 94 100
89 100 100 100 100 100 100 100 100 100 100 89 81 64 82 100 100 100 100 97 58 46 71 35 24 28 27 93 100 64 35 49 36 29 31 30 30 27 31 85 100 86 87 100 100 100 100 100 100

GFSSGP_250_rhum_081.txt.gz
RH
25 27 26 27 24 26 23 19 16 13 12 11 10 9 8 8 10 10 9 9 11 17 14 13 18 18 20 23 24 22 24 27 24 22 23 23 25 26 26 28 28 28 27 25 27 25 23 23 23
30 29 27 26 30 31 26 25 19 16 12 12 12 13 11 10 12 12 11 11 10 16 16 14 15 14 16 18 18 18 18 17 21 40 100 100 78 32 53 94 94 63 41 38 39 38 38 37 34
26 27 28 30 36 31 35 26 24 19 14 13 13 13 14 13 12 11 13 19 22 14 32 24 19 20 18 23 22 44 34 49 99 100 96 100 100 100 100 98 100 100 67 41 37 36 39 40 45
25 37 31 44 35 36 51 31 26 22 16 15 18 17 13 15 13 13 12 13 16 22 23 14 11 13 23 53 71 77 67 47 100 94 100 100 100 100 100 93 100 100 100 83 70 50 32 34 43
44 50 37 48 44 50 41 27 28 30 20 17 20 19 14 15 15 28 25 22 21 18 17 14 14 22 16 43 43 41 31 40 92 100 99 100 100 99 100 100 100 100 100 100 95 60 32 33 42
91 52 30 31 32 51 44 28 32 28 22 23 20 18 17 24 26 30 27 26 19 18 14 12 22 10 16 29 32 19 19 52 100 100 100 91 100 100 100 100 99 92 81 81 99 66 25 39 51
75 36 27 28 28 73 44 25 32 36 27 26 22 25 33 34 34 33 26 19 16 13 12 12 11 19 32 32 16 17 20 100 100 84 100 79 100 100 100 100 90 84 62 53 97 55 24 25 66
28 24 31 28 48 81 29 26 32 34 34 31 26 35 38 42 32 18 16 15 13 12 13 12 10 11 18 26 22 22 27 98 100 81 100 82 100 100 100 98 71 56 38 57 67 26 48 63 92
26 31 35 32 54 68 28 30 28 37 38 33 40 42 42 30 19 16 15 14 14 14 14 13 19 24 60 31 50 68 90 100 100 100 100 100 100 100 100 97 78 40 42 39 26 78 100 100 91
45 24 31 42 67 49 40 34 28 32 39 46 43 39 28 21 17 17 15 13 13 14 14 22 49 43 82 84 94 100 100 100 97 100 100 100 100 100 96 71 59 53 34 30 42 87 100 100 96
48 34 38 72 61 57 33 36 29 27 37 49 50 32 23 20 18 18 15 15 17 15 15 63 60 64 94 100 100 100 100 100 100 100 100 100 99 100 98 71 66 49 31 38 99 100 83 70 97
45 81 94 95 89 69 39 39 40 26 34 56 48 28 38 18 17 16 16 15 17 16 19 88 82 65 100 100 100 100 100 100 100 100 100 100 100 100 82 56 44 39 40 83 100 76 62 74 92
100 100 100 98 82 58 57 58 47 32 31 56 44 28 42 23 21 18 17 16 17 16 25 76 95 65 100 100 100 100 100 100 100 100 100 100 100 75 64 78 73 54 55 100 100 100 72 83 100
100 99 96 90 80 76 61 54 44 41 31 55 36 34 41 37 27 21 19 16 18 19 31 97 89 76 100 100 100 100 100 100 100 100 100 100 90 72 100 100 92 68 51 42 69 90 91 100 77
91 84 77 72 87 89 71 49 48 41 29 52 41 34 37 45 21 22 21 20 17 18 23 72 100 66 78 100 100 99 100 100 100 100 100 100 100 99 100 100 100 99 52 59 72 83 60 73 100
75 60 50 66 70 68 61 42 37 36 30 50 52 33 35 48 32 20 22 21 18 18 19 52 100 93 61 70 95 90 100 100 100 100 100 100 100 100 100 100 90 78 100 46 55 74 100 100 100
58 61 61 74 60 52 47 38 36 31 31 47 60 34 40 51 38 23 22 21 19 18 18 21 93 100 100 82 63 83 81 98 100 100 100 100 100 100 100 100 89 79 91 99 69 81 97 94 100
56 55 52 47 57 52 57 51 33 33 32 55 69 41 45 51 43 34 26 24 20 20 19 17 32 98 100 87 98 82 100 100 100 100 100 100 100 100 100 93 81 79 71 100 100 96 78 63 91
50 51 41 45 69 57 52 42 34 42 30 71 68 44 45 62 47 40 35 25 22 21 20 19 19 61 93 100 69 99 100 79 71 91 94 91 95 99 100 83 70 78 75 63 100 100 86 95 100
57 54 45 53 67 55 54 32 36 64 35 81 74 46 41 64 55 61 60 29 24 22 20 19 20 22 86 100 100 96 90 95 100 43 77 75 71 92 77 70 98 100 100 100 100 100 65 98 100
46 41 50 49 62 43 48 23 41 63 35 82 76 53 37 65 59 80 80 53 25 24 23 19 20 21 60 84 100 100 75 73 92 100 92 88 89 90 100 100 100 100 89 83 56 54 63 100 100
42 39 33 46 44 36 33 30 39 97 44 80 85 58 40 57 73 71 100 38 24 26 23 22 21 20 20 53 69 96 100 99 72 88 100 100 100 99 86 100 100 100 91 100 96 100 100 100 95
31 27 26 44 44 39 30 30 74 100 66 83 100 72 52 67 86 96 73 38 30 22 28 25 21 23 21 20 20 33 71 81 100 100 95 88 100 100 100 99 100 100 95 60 57 62 73 91 80
23 26 27 33 37 38 45 35 100 100 100 80 91 87 64 78 98 99 71 42 38 26 28 25 31 31 26 22 22 22 19 49 70 100 100 90 85 65 98 99 92 100 100 100 99 88 83 72 87
20 26 24 29 31 43 70 46 100 100 100 72 63 88 94 100 100 96 80 46 42 40 26 26 29 39 43 30 29 24 23 20 21 44 68 81 85 97 80 79 84 75 86 86 87 100 100 97 96
17 24 23 31 50 65 89 94 100 100 100 71 65 95 100 100 100 100 97 65 42 36 30 25 23 29 87 68 39 33 24 21 22 21 27 33 45 68 95 100 100 98 87 100 100 100 100 99 100
22 26 46 56 88 72 91 100 100 100 100 82 69 100 92 100 100 100 100 98 57 35 38 28 24 43 79 78 29 34 43 32 25 22 23 25 34 37 49 81 100 100 100 100 100 100 100 100 100
29 62 74 90 87 100 100 100 100 100 100 100 75 92 84 94 100 100 100 100 99 67 48 36 25 26 34 99 64 56 54 29 29 27 26 24 25 36 41 43 67 93 98 99 99 100 100 100 100
46 86 99 100 92 100 100 100 100 100 100 100 87 64 85 96 100 100 100 100 100 100 91 50 44 35 24 29 47 69 64 60 32 28 32 31 33 32 29 43 58 54 56 64 68 68 70 94 99
74 100 100 96 100 100 100 100 100 100 100 100 100 98 79 81 100 100 100 100 100 100 98 87 71 49 28 26 23 27 31 33 72 43 27 33 32 35 33 32 29 31 62 94 90 90 100 100 92

GFSSGP_250_rhum_084.txt.gz
RH
30 34 34 28 32 28 29 28 26 26 24 19 17 13 11 10 9 9 8 9 9 8 8 8 9 10 11 13 15 18 18 20 20 22 21 24 24 22 21 22 23 24 24 24 22 23 22 22 24
31 39 33 32 30 28 27 32 32 30 28 22 19 16 12 10 10 10 9 9 9 9 9 9 10 10 11 13 15 18 21 25 25 24 23 21 21 25 25 52 32 29 30 30 40 48 37 37 36
30 33 32 31 32 32 30 31 36 40 29 23 20 16 13 11 10 10 12 13 10 10 10 11 11 11 11 12 14 16 22 27 25 24 25 43 36 36 99 100 98 38 43 95 100 98 87 58 48
26 30 38 35 45 45 31 25 28 42 38 25 24 18 14 11 11 13 13 12 14 12 11 11 11 12 13 20 28 31 48 75 74 62 66 100 99 100 100 100 100 100 93 86 95 100 99 76 51
24 31 29 38 76 75 30 24 29 62 35 27 25 19 14 13 11 14 14 15 17 16 16 18 17 14 13 14 20 30 75 100 96 66 99 100 100 99 100 100 100 100 100 100 88 88 85 76 86
32 25 33 63 76 40 25 23 35 48 38 29 26 19 16 14 15 22 23 26 28 22 18 15 16 14 12 11 18 24 45 99 98 82 95 100 100 100 100 100 97 100 100 98 87 70 55 54 82
35 38 42 74 40 23 23 29 30 53 36 29 28 24 16 17 25 26 29 28 22 17 14 11 11 11 11 11 12 17 18 44 75 100 96 100 89 97 100 100 96 100 100 96 90 63 57 54 90
70 62 67 49 36 33 24 22 40 44 38 29 28 31 22 28 38 36 27 22 16 14 14 12 11 12 12 12 14 30 26 34 76 100 100 100 100 100 100 100 100 83 100 80 55 48 36 57 72
81 54 43 44 41 55 30 36 49 56 58 34 34 33 27 29 38 29 27 17 16 13 13 12 12 12 12 23 51 35 25 29 39 95 100 100 100 90 100 100 100 96 97 64 48 34 36 47 34
97 83 97 91 100 68 38 43 87 70 75 35 34 30 31 43 34 35 27 18 16 14 13 13 13 13 17 54 98 54 49 33 31 88 100 100 100 72 100 100 100 84 82 64 43 36 32 30 46
100 70 64 100 80 56 59 97 98 74 71 49 37 40 39 48 42 30 26 20 19 14 13 14 13 16 44 89 100 100 100 100 54 82 100 85 100 100 100 100 100 91 81 57 50 39 30 38 90
76 83 100 100 85 76 80 78 100 72 60 48 34 42 39 52 38 32 26 28 24 17 15 14 14 27 56 96 100 100 100 100 100 92 100 100 100 100 100 100 98 88 62 48 37 32 27 47 98
100 100 98 100 100 80 92 96 92 80 50 37 36 35 37 48 33 33 30 34 18 17 16 15 16 26 62 90 100 100 100 100 100 100 100 100 100 100 100 100 100 83 63 59 45 40 35 43 68
100 100 100 100 100 100 99 88 78 78 60 39 35 32 37 48 29 36 32 36 18 18 16 15 16 44 55 78 100 100 100 100 100 100 100 100 100 100 100 100 100 81 62 80 60 47 46 42 68
100 100 100 100 100 100 88 74 67 62 53 39 40 36 34 52 31 38 36 43 21 20 18 16 16 35 60 71 99 100 100 100 100 100 100 100 100 100 100 100 95 88 99 99 73 83 85 87 100
100 100 100 100 87 83 84 66 68 55 43 44 45 33 31 56 43 39 38 38 21 22 20 17 16 19 52 54 86 100 100 100 100 100 100 100 100 100 100 100 100 87 77 92 81 93 73 76 85
88 85 83 71 64 65 63 56 54 52 45 36 47 31 33 59 48 38 44 36 26 23 21 18 16 16 74 55 66 98 100 100 100 100 100 100 100 96 100 99 89 92 95 92 86 81 66 58 54
75 54 48 55 74 57 55 52 52 51 42 34 47 31 42 64 47 35 43 43 32 22 22 21 18 18 21 100 71 56 100 100 100 100 100 100 100 100 100 100 100 97 97 100 100 94 63 58 59
52 57 58 65 74 72 47 40 42 43 38 36 48 37 47 75 51 39 45 48 38 25 23 22 19 18 18 74 100 58 51 93 100 100 100 100 100 100 100 100 100 100 100 100 93 100 100 86 69
87 63 52 57 68 54 43 38 48 48 42 39 60 38 65 84 61 47 54 54 59 35 28 22 20 18 19 18 72 100 95 52 83 100 100 94 100 100 100 100 100 99 100 100 100 99 99 98 73
86 76 69 46 44 40 31 38 39 41 40 52 52 46 67 96 64 47 51 61 69 44 27 22 20 19 19 21 39 88 100 84 43 68 87 79 80 91 100 100 100 100 95 93 100 99 85 85 96
60 64 51 38 40 43 35 34 40 43 45 81 43 58 82 100 61 48 44 66 71 61 32 23 21 20 18 21 20 45 93 100 50 38 42 68 64 67 88 100 89 86 100 98 83 94 81 77 78
66 56 52 48 44 38 34 32 47 34 54 63 40 76 100 100 60 43 41 68 79 67 41 21 24 20 22 22 20 20 32 85 100 100 86 68 66 93 72 73 100 100 100 80 100 100 100 100 98
62 53 48 51 43 28 39 25 41 46 65 67 42 85 100 99 60 53 45 70 97 76 40 32 23 23 23 25 25 22 19 21 55 93 86 97 99 82 98 98 72 66 66 71 98 82 93 100 100
60 54 49 41 30 27 22 17 99 51 68 84 48 81 100 100 60 54 59 80 100 84 44 46 30 24 24 50 62 30 23 20 19 19 19 39 90 99 100 100 98 100 100 100 100 100 99 96 96
61 56 38 27 20 21 16 23 75 76 98 100 59 81 100 100 80 61 64 87 100 88 52 39 36 25 24 23 76 62 24 24 21 20 20 20 20 25 52 82 100 100 100 96 95 100 100 100 100
61 40 28 21 18 21 22 37 89 100 84 100 58 87 99 100 99 90 75 100 100 100 86 51 36 29 25 24 32 63 55 50 41 32 22 21 21 21 24 28 38 64 92 100 100 100 100 100 100
41 32 23 18 20 26 30 37 85 100 100 99 55 67 96 100 100 97 93 100 100 100 100 84 54 38 35 25 25 28 57 76 75 66 51 34 24 22 23 23 30 35 38 43 70 99 100 100 100
37 26 23 19 26 32 39 66 100 100 100 100 75 51 74 97 100 100 100 100 100 100 100 100 94 59 48 37 34 30 32 31 28 34 49 49 59 36 24 25 26 27 31 46 58 64 83 92 94
37 29 26 31 51 48 54 94 100 100 100 100 100 74 54 73 100 100 100 100 99 100 100 100 100 97 59 44 41 53 50 29 28 23 24 31 41 59 47 42 30 28 29 25 30 29 31 49 64

GFSSGP_250_rhum_087.txt.gz
RH
73 67 69 34 28 29 28 28 30 28 28 31 28 28 22 18 18 16 13 10 8 8 8 8 9 9 8 8 8 8 8 8 8 10 11 13 17 20 19 22 23 21 20 20 23 24 28 27 23
79 82 61 41 30 36 35 32 30 29 26 25 26 27 25 20 20 17 14 11 8 8 8 9 10 10 9 9 9 8 8 8 9 10 13 25 62 57 52 65 52 42 42 33 26 30 31 28 27
100 80 44 35 34 35 34 32 29 33 27 25 24 31 33 21 16 16 13 10 10 11 10 11 12 12 11 10 10 11 11 11 14 15 16 22 50 71 67 65 42 32 34 87 94 41 30 30 37
82 67 48 31 32 29 35 35 34 42 28 23 27 32 26 20 19 17 14 12 12 13 13 12 12 12 12 12 12 13 13 15 19 18 19 21 25 82 90 94 73 76 100 100 91 59 38 80 95
93 76 42 28 26 32 33 31 41 31 27 25 29 32 28 29 22 18 15 14 13 14 15 17 20 19 18 18 17 22 37 70 86 65 45 41 26 38 87 100 100 100 100 100 100 100 100 87 70
91 83 43 36 35 30 29 26 28 26 23 23 34 44 47 33 24 19 17 17 22 23 17 17 16 13 12 12 14 18 33 49 92 100 100 88 64 76 100 98 100 100 100 100 100 86 86 80 69
93 87 63 42 58 43 32 30 30 31 30 30 43 57 60 32 32 21 19 21 27 23 17 14 12 12 12 12 12 20 37 61 75 73 97 85 81 81 100 100 100 100 100 100 97 100 90 80 51
98 93 70 84 83 72 52 41 39 47 39 33 56 56 70 40 36 22 21 26 31 23 17 14 13 13 12 12 11 11 13 15 34 26 67 100 99 82 100 100 100 100 100 94 100 100 76 51 39
82 71 82 100 100 88 71 51 55 55 49 50 78 64 65 44 40 25 25 29 35 26 20 19 15 14 14 14 13 13 17 19 13 19 50 100 100 94 100 100 100 100 88 99 100 96 58 39 36
100 83 99 100 100 100 96 59 47 53 58 66 53 72 62 47 43 31 23 34 39 30 28 20 16 15 13 14 15 28 28 37 31 26 38 100 100 100 96 100 100 100 100 80 73 59 66 42 42
100 96 100 100 100 100 72 54 41 90 44 73 70 63 76 52 40 32 24 39 42 33 35 20 15 15 15 18 44 79 74 65 60 33 45 100 100 100 80 100 100 98 100 91 89 79 54 39 29
88 99 100 100 100 88 73 51 60 89 62 96 66 75 56 51 44 38 27 41 44 34 38 27 16 15 15 26 56 100 99 100 100 79 41 100 100 100 73 94 100 100 100 100 75 57 40 33 27
71 94 100 100 95 80 84 100 94 58 100 80 80 79 58 47 38 36 30 36 41 34 39 34 17 17 16 27 64 100 100 100 100 95 62 97 100 97 70 91 100 100 100 94 76 64 52 35 28
99 100 99 85 93 80 97 100 99 100 100 63 80 68 52 35 37 42 30 35 40 38 42 28 18 17 16 28 60 91 100 100 100 100 92 100 94 100 100 100 100 100 99 78 86 70 61 45 33
100 100 100 99 84 100 100 90 100 100 97 79 75 58 45 34 39 41 30 33 44 35 43 25 18 16 16 18 67 82 100 100 100 100 100 100 100 100 100 100 100 100 100 98 87 71 67 54 56
71 94 100 100 100 100 98 100 100 97 72 71 66 55 38 36 39 40 38 36 46 36 42 28 19 16 17 16 60 77 100 100 99 100 100 100 100 100 100 100 100 100 99 100 92 69 70 61 84
57 68 92 100 100 100 91 92 100 83 71 59 52 49 38 38 38 41 40 48 48 37 42 36 20 17 16 16 33 60 100 100 100 100 100 100 100 100 100 100 100 100 100 100 93 75 81 83 77
61 58 78 82 85 81 76 58 78 84 58 48 47 52 43 39 44 46 44 57 46 39 43 34 23 20 17 16 20 56 85 100 100 100 100 100 100 100 100 100 100 100 100 99 84 89 88 87 90
62 65 63 98 85 62 47 38 59 57 44 52 49 49 40 43 40 54 51 60 46 38 45 41 32 23 18 17 17 46 61 100 100 100 100 100 100 100 100 89 91 86 69 65 73 90 100 89 100
70 83 78 68 82 60 49 46 54 50 49 48 51 42 45 47 43 54 55 66 43 38 50 53 33 25 19 18 17 40 53 62 90 100 100 100 100 100 100 100 100 100 100 100 98 100 97 100 100
58 79 66 62 75 70 61 36 45 52 46 48 45 42 46 50 52 50 58 75 44 42 56 58 33 27 20 18 16 21 59 82 66 87 96 100 100 100 100 100 96 100 100 100 100 100 100 100 100
92 99 96 71 70 67 52 36 59 73 58 50 49 49 57 57 59 60 68 78 48 44 54 68 32 27 23 18 16 17 20 66 91 100 99 72 95 100 100 100 100 100 100 99 99 100 100 100 100
98 99 91 84 92 85 57 50 65 67 57 55 61 56 68 59 74 61 81 71 49 45 52 68 39 28 26 19 19 19 20 21 55 78 83 62 67 77 84 87 81 74 78 98 100 100 100 100 100
61 72 79 84 79 54 83 60 56 65 58 59 64 56 68 66 67 68 80 71 50 44 49 67 66 32 26 22 20 37 22 19 19 38 89 100 72 85 98 83 52 44 66 83 94 87 100 100 99
95 94 81 65 59 65 76 46 67 57 59 60 55 56 56 75 61 73 84 74 56 44 44 64 69 37 32 25 26 59 59 25 21 20 20 21 53 82 70 56 82 82 94 84 71 82 93 92 100
95 87 83 76 75 72 64 53 60 43 42 38 37 44 56 53 72 98 79 75 67 54 47 72 83 57 44 31 23 23 65 65 47 33 27 28 26 22 22 28 100 100 100 100 100 100 100 100 99
91 94 86 70 71 66 68 57 31 28 25 27 37 58 63 65 100 100 67 83 67 64 56 82 95 61 36 39 27 24 28 28 48 44 49 44 40 29 35 23 20 23 39 92 100 100 100 100 100
98 78 71 73 82 61 46 30 24 24 34 44 54 67 57 85 100 100 93 79 69 65 75 99 100 89 60 41 32 28 24 26 25 31 31 26 27 25 26 35 25 22 22 22 32 44 77 93 100
95 76 73 87 63 40 30 23 31 30 40 53 70 73 61 95 100 100 100 87 70 65 86 100 100 100 91 58 42 45 32 30 33 36 38 30 29 23 23 26 33 31 24 23 24 25 29 23 24
87 76 78 79 46 30 25 30 40 54 46 66 84 64 59 99 100 100 100 100 91 75 99 100 100 100 100 100 93 67 58 42 32 42 40 36 35 29 25 26 30 36 36 36 32 29 34 56 35